     2              OBSERVATION DATA    GPS                 RINEX VERSION / TYPE
teqc 2000Feb29 20021016 17:30:04UTC                         PGM / RUN BY / DATE
                                                            COMMENT
L2: 1 -> 1; 5 -> 5; 60 -> 9                                 COMMENT
L2: 1 -> 1; 5 -> 5; 60 -> 9                                 COMMENT
L2: 1 -> 1; 5 -> 5; 60 -> 9                                 COMMENT
L2: 1 -> 1; 5 -> 5; 60 -> 9                                 COMMENT
L2: 1 -> 1; 5 -> 5; 60 -> 9                                 COMMENT
Original Marker Name: FORD                                  COMMENT
Campaign Name: Yolo County Subsidence 2002                  COMMENT
4-Character Station Name: FORD                              COMMENT
6-Character Antenna Code: TRMCMP                            COMMENT
Vertical Measurement Point: BPA                             COMMENT
Vertical Offset to Rinex Ref. Point: 0.0000                 COMMENT
Radial Measurement Point: RRP                               COMMENT
Radial Offset to Rinex Ref. Point: 0.0000                   COMMENT
Antenna Height from Field Measurement: 2.0000 m             COMMENT
Additional Antenna Identification Info.:                    COMMENT
Model 22020.00+GP                                           COMMENT
Original XYZ: -2620322.2340 -4237723.6552 3968618.1260      COMMENT
New XYZ position is based on association with SCEC monument COMMENT
E1O4G9P1+0011. Position of that monument is believed to be  COMMENT
valid to within 1 m horizontally; vertical accuracy         COMMENT
should be no worse than 3-times this value.                 COMMENT
                                                            COMMENT
Revised Rinex header created by UCSD GPS archive for        COMMENT
GSAC on 27-Jun-2003 (2003:178) 16:38:09 GMT                 COMMENT
For assistance contact dagnew@ucsd.edu                      COMMENT
or anderson@python.ucsd.edu                                 COMMENT
                                                            COMMENT
FORD RM NO2 1974                                            MARKER NAME
FORD                                                        MARKER NUMBER
-Unknown- YOLO_COUNTY                                       OBSERVER / AGENCY
14594 TRIMBLE 4000 SSI NP 7.19; SP 3.04                     REC # / TYPE / VERS
50361 TR GEOD L1/L2 GP                                      ANT # / TYPE
 -2620322.5215 -4237724.8884  3968615.6176                  APPROX POSITION XYZ
        2.0000        0.0000        0.0000                  ANTENNA: DELTA H/E/N
     1     1     0                                          WAVELENGTH FACT L1/2
     7    C1    L1    L2    P1    P2    S1    S2            # / TYPES OF OBSERV
     0                                                      INTERVAL
  2002     8     5    19    30   30.000000                  TIME OF FIRST OBS
  2002     8     5    20    15   15.000000                  TIME OF LAST OBS
                                                            END OF HEADER
 02  8  5 19 30 30.0000000  0  4G11G14G21G25
  22059099.4454     -10621.66258
        29.2504
  20980756.8284       7200.71657
        27.7504
  22320133.4144       8660.83457
        21.7504
  21872148.1644     -11993.03057
        23.0004
 02  8  5 19 30 45.0000000  0  5G11G14G21G25G31
  22052990.3674     -42723.12548
        28.5004
  20985868.2814      34062.40247
        27.2504
  22325043.4694      34464.37947
        21.5004
  21865253.9844     -48221.73247
        23.0004
  24033691.9534      36714.23145
         9.7504
 02  8  5 19 31  0.0000000  0  5G11G14G21G25G31
  22046837.1024     -75057.36747         1.48456                  22046842.1994
        27.7504         23.0004
  20990930.3444      60662.05547
        27.7504
  22329899.9924      59985.07547
        21.5004
  21858314.1804     -84693.33747
        24.5004
  24041123.4534      75770.52945
        10.0004
 02  8  5 19 31 15.0000000  0  5G11G14G21G25G31
  22040648.6334    -107577.27347    -25338.68046                  22040654.0004
        27.2504         22.7504
  20995951.0474      87046.11248     17807.03857                  20995956.7894
        28.0004         28.2504
  22334711.6024      85269.61747     14429.67056                  22334719.7624
        21.7504         20.5004
  21851336.8594    -121360.78147    -22867.91056                  21851343.8484
        25.0004         24.0004
  24048507.5864     114577.81345
         9.7504
 02  8  5 19 31 30.0000000  0  5G11G14G21G25G31
  22034431.8674    -140247.67347    -50796.12046                  22034437.3524
        27.5004         22.7504
  21000936.8594     113249.34947     38225.13547                  21000942.7544
        27.2504         28.0004
  22339484.8754     110353.10947     33975.20346                  22339492.6254
        21.7504         20.5004
  21844328.0004    -158188.92747    -51565.13846                  21844335.0824
        24.2504         24.0004
  24055852.5784     153170.77745      1997.95155                  24055865.1804
        10.5004         11.0004
 02  8  5 19 31 45.0000000  0  5G11G14G21G25G31
  22028190.7974    -173043.83447    -76351.55446                  22028196.4104
        27.7504         22.7504
  21005893.6564     139295.76547     58521.03047                  21005899.5044
        27.7504         28.2504
  22344224.6564     135259.69947     53382.90846                  22344232.5704
        21.7504         20.0004
  21837294.1564    -195153.10047    -80368.34846                  21837301.1684
        24.7504         24.0004
  24063160.1484     191573.30445     31921.92746                  24063171.4494
        10.2504         12.0004
 02  8  5 19 32  0.0000000  0  5G11G14G21G25G31
  22021929.7504    -205942.92347   -101987.19246                  22021935.5744
        25.7504         22.2504
  21010824.6094     165207.83148     78712.23547                  21010830.3054
        28.0004         28.2504
  22348934.7344     160012.42247     72670.69846                  22348942.3914
        21.5004         19.7504
  21830238.9844    -232230.31847   -109259.65646                  21830245.8054
        25.7504         24.0004
  24070435.6024     229807.72045     61714.92745                  24070446.6094
         9.2504         11.5004
 02  8  5 19 32 15.0000000  0  5G11G14G21G25G31
  22015652.7734    -238930.88047   -127692.06246                  22015658.8094
        25.5004         22.0004
  21015732.7274     190999.17448     98809.37347                  21015738.4924
        28.2504         28.2504
  22353618.7114     184625.05147     91849.34246                  22353626.1804
        21.7504         19.5004
  21823164.1414    -269406.46247   -138228.04546                  21823170.9144
        24.5004         24.0004
  24077682.1804     267887.51045     91387.43745                  24077693.6914
         9.5004         10.7504
 02  8  5 19 32 30.0000000  0  5G11G14G21G25G31
  22009361.9844    -271988.60547   -153451.31446                  22009367.9144
        25.2504         21.5004
  21020621.4534     216688.35748    118826.90747                  21020627.0314
        28.5004         28.2504
  22358279.1254     209116.29747    110933.39746                  22358286.9454
        21.5004         19.5004
  21816074.4304    -306662.39147   -167258.60246                  21816081.4534
        24.5004         23.7504
  24084902.3594     305831.09545    120953.76845                  24084913.2734
         8.2504         11.2504
 02  8  5 19 32 45.0000000  0  5G11G14G21G25G31
  22003059.9304    -305105.19847   -179256.44546                  22003065.8714
        25.7504         21.7504
  21025492.2344     242285.77848    138772.93347                  21025497.8014
        28.0004         28.2504
  22362918.1334     233496.88647    129931.22046                  22362926.2464
        20.5004         19.5004
  21808971.8054    -343987.28947   -196342.90546                  21808978.6484
        24.2504         23.5004
  24092098.9304     343648.70545    150422.02745                  24092109.4804
         8.5004         10.0004
 02  8  5 19 33  0.0000000  0  5G11G14G21G25G31
  21996749.2974    -338270.01747   -205099.14646                  21996754.9454
        26.0004         22.0004
  21030347.6724     267801.53448    158655.32847                  21030353.2384
        28.0004         28.2504
  22367538.8284     257777.31547    148851.00646                  22367547.0234
        20.5004         19.5004
  21801857.8834    -381370.71247   -225472.80546                  21801864.4454
        23.7504         23.2504
  24099272.4614     381350.31145    179799.82345                  24099282.6374
         8.7504         10.0004
 02  8  5 19 33 15.0000000  0  5G11G14G21G25G31
  21990430.6644    -371470.99747   -230970.02146                  21990436.4654
        24.7504         22.0004
  21035189.9384     293247.16348    178483.08547                  21035195.4924
        28.2504         28.2504
  22372141.9694     281969.37447    167701.91846                  22372150.0704
        20.2504         19.2504
  21794735.3284    -418800.28247   -254638.66346                  21794741.8554
        24.0004         23.2504
  24106427.1484     418947.33745    209096.14245                  24106437.1254
         9.2504         10.2504
 02  8  5 19 33 30.0000000  0  5G11G14G21G25G31
  21984107.4304    -404700.40247   -256863.04546                  21984113.5824
        24.5004         21.5004
  21040020.7114     318629.92948    198261.84847                  21040025.9844
        30.0004         28.7504
  22376730.8284     306080.60447    186489.85646                  22376738.9654
        20.5004         19.0004
  21787605.4844    -456268.36947   -283834.54546                  21787612.0474
        24.2504         23.5004
  24113564.2194     456446.85745    238316.48145                  24113575.1094
         9.7504         10.5004
 02  8  5 19 33 45.0000000  0  5G11G14G21G25G31
  21977781.0314    -437944.94647   -282767.85546                  21977787.6644
        23.5004         21.5004
  21044841.2504     343962.50548    218001.50547                  21044846.3714
        29.5004         28.7504
  22381306.0004     330123.88047    205224.84346                  22381314.2544
        21.0004         19.0004
  21780470.5704    -493761.73447   -313050.11046                  21780477.2034
        24.0004         23.7504
  24120683.7894     493861.47445    267470.65645                  24120694.2344
        10.5004         11.0004
 02  8  5 19 34  0.0000000  0  5G11G14G21G25G31
  21971452.3444    -471203.01647   -308683.21646                  21971458.7544
        23.7504         21.2504
  21049652.4844     369246.17548    237703.04947                  21049657.5474
        29.5004         29.0004
  22385869.0004     354100.67447    223908.01346                  22385877.5124
        21.0004         19.0004
  21773331.3204    -531278.53647   -342283.95046                  21773338.1294
        24.2504         24.2504
  24127787.3754     531192.27245    296559.50845                  24127796.9774
        10.0004         11.2504
 02  8  5 19 34 15.0000000  0  5G11G14G21G25G31
  21965123.1094    -504463.26847   -334600.28946                  21965129.5554
        24.0004         21.5004
  21054456.3914     394491.63948    257374.82947                  21054461.6174
        29.0004         28.7504
  22390420.5704     378021.96047    242547.93046                  22390429.0944
        20.0004         19.0004
  21766190.1644    -568807.62947   -371527.36746                  21766196.9844
        25.2504         24.5004
  24134877.4144     568449.81645    325591.26145                  24134888.1994
        10.0004         10.5004
 02  8  5 19 34 30.0000000  0  5G11G14G21G25G31
  21958794.1484    -537722.28147   -360516.38846                  21958800.3954
        24.2504         21.5004
  21059253.7894     419701.81648    277019.10747                  21059259.1454
        29.5004         28.7504
  22394963.1094     401890.91347    261147.07146                  22394971.2344
        21.2504         19.2504
  21759046.5394    -606345.44147   -400777.57546                  21759053.4694
        25.0004         24.7504
  24141955.0554     605636.90545    354568.14445                  24141965.8754
        10.7504         11.5004
 02  8  5 19 34 45.0000000  0  5G11G14G21G25G31
  21952467.4144    -570971.51447   -386424.86446                  21952473.3674
        25.0004         21.7504
  21064046.0944     444884.87448    296642.25947                  21064051.4844
        29.0004         28.5004
  22399496.9694     425716.10247    279712.11446                  22399505.6564
        21.2504         19.2504
  21751903.6174    -643883.45647   -430027.93846                  21751910.2154
        25.5004         24.7504
  24149018.7814     642761.50745    383496.30945                  24149029.2034
         9.7504         11.5004
 02  8  5 19 35  0.0000000  0  5G11G14G21G25G31
  21946142.3914    -604206.14447   -412321.98046                  21946148.2504
        24.2504         21.5004
  21068833.5634     470044.94448    316247.49447                  21068839.1524
        28.5004         28.2504
  22404023.4844     449502.10347    298246.61346                  22404032.2074
        20.2504         19.2504
  21744761.3524    -681416.94847   -459274.77746                  21744767.9964
        25.7504         24.7504
  24156071.7584     679827.75045    412379.03745                  24156083.3284
         9.0004         11.0004
 02  8  5 19 35 15.0000000  0  5G11G14G21G25G31
  21939823.0164    -637417.70247   -438201.10046                  21939828.9574
        25.2504         22.0004
  21073618.0704     495190.02247    335841.05347                  21073623.9184
        27.7504         28.0004
  22408543.7344     473256.90347    316756.81046                  22408552.4694
        20.5004         19.0004
  21737621.3914    -718937.37947   -488511.44046                  21737628.1054
        25.5004         24.7504
  24163115.7584     716843.48745    441222.40945                  24163128.1254
         9.2504         11.5004
 02  8  5 19 35 30.0000000  0  5G11G14G21G25G31
  21933508.5474    -670600.74847   -464058.00646                  21933513.9844
        25.7504         22.2504
  21078401.3754     520325.22948    355426.91747                  21078407.3284
        28.5004         28.0004
  22413058.9064     496986.09046    335247.03746                  22413067.8524
        19.7504         19.0004
  21730484.5554    -756439.21547   -517733.61446                  21730491.3524
        24.5004         24.5004
  24170151.7424     753813.55545    470030.16445                  24170162.3404
         9.7504         11.7504
 02  8  5 19 35 45.0000000  0  5G11G14G21G25G31
  21927198.7584    -703757.42947   -489894.37346                  21927204.3714
        25.2504         22.2504
  21083181.9614     545447.88148    375003.00047                  21083187.9144
        28.2504         28.0004
  22417569.4064     520687.10546    353715.31846                  22417578.2234
        19.7504         19.2504
  21723351.7114    -793924.58347   -546942.95546                  21723358.4144
        24.7504         24.7504
  24177177.3204     790735.11845    498800.13745                  24177188.2344
         9.2504         11.5004
 02  8  5 19 36  0.0000000  0  5G11G14G21G25G31
  21920895.5704    -736881.85947   -515705.60646                  21920901.5704
        25.5004         22.5004
  21087961.4064     570563.26048    394573.40947                  21087967.2774
        28.7504         28.2504
  22422075.1094     544365.67046    372166.11746                  22422083.3984
        19.7504         19.2504
  21716222.5234    -831387.65247   -576134.91946                  21716229.3954
        25.0004         24.7504
  24184195.4924     827613.49545    527536.46145                  24184205.9844
         9.5004         11.0004
 02  8  5 19 36 15.0000000  0  5G11G14G21G25G31
  21914599.2664    -769969.40147   -541488.08946                  21914605.1024
        25.5004         22.5004
  21092740.4144     595675.60248    414141.45447                  21092746.2384
        29.0004         28.2504
  22426577.4774     568026.13346    390602.79046                  22426585.8954
        19.5004         18.7504
  21709098.5704    -868823.55447   -605305.71446                  21709105.3914
        24.5004         24.7504
  24191205.3914     864452.64145    556242.20045                  24191216.7504
         9.2504         11.2504
 02  8  5 19 36 30.0000000  0  5G11G14G21G25G31
  21908311.1644    -803013.11547   -567236.41646                  21908317.3404
        26.0004         23.0004
  21097519.5944     620791.20148    433712.04247                  21097525.4304
        28.7504         28.2504
  22431077.5164     591675.18546    409030.59846                  22431085.8984
        18.5004         19.2504
  21701981.1644    -906225.56947   -634450.10346                  21701987.8204
        24.5004         24.7504
  24198208.3364     901258.87345    584922.28145                  24198219.9414
         8.0004         10.5004
 02  8  5 19 36 45.0000000  0  5G11G14G21G25G31
  21902031.5944    -836012.03547   -592949.83946                  21902037.8634
        25.7504         23.0004
  21102299.3754     645910.57948    453285.56847                  21102305.4804
        28.2504         28.2504
  22435576.1094     615313.51546    427450.04246                  22435584.5984
        19.2504         18.7504
  21694870.3754    -943592.76247   -663567.36646                  21694876.6094
        25.0004         24.7504
  24205206.2664     938032.40745    613576.92345                  24205217.5784
         8.2504         10.5004
 02  8  5 19 37  0.0000000  0  5G11G14G21G25G31
  21895760.9144    -868963.38847   -618626.20346                  21895767.2774
        25.0004         22.7504
  21107081.1414     671036.01548    472863.81647                  21107086.9414
        29.0004         28.0004
  22440073.1644     638943.75546    445863.17646                  22440081.5124
        19.7504         19.0004
  21687767.0164    -980922.33547   -692655.30946                  21687773.3094
        25.7504         25.0004
  24212198.8364     974775.48445    642207.83645                  24212210.9104
         7.7504          9.7504
 02  8  5 19 37 15.0000000  0  5G11G14G21G25G31
  21889500.4694    -901863.13147   -644262.35146                  21889506.6684
        25.5004         23.0004
  21111864.0944     696171.12048    492449.60547                  21111870.2234
        28.7504         28.0004
  22444568.8134     662569.80346    464273.05246                  22444576.9264
        19.0004         19.2504
  21680671.5944   -1018210.15947   -721710.73046                  21680678.1334
        26.2504         25.2504
  24219184.8054    1011491.48445    670817.64645                  24219195.9534
         7.7504          9.7504
 02  8  5 19 37 30.0000000  0  5G11G14G21G25G31
  21883250.3914    -934708.91347   -669856.46546                  21883256.6254
        26.0004         23.0004
  21116649.4224     721317.79648    512044.40847                  21116655.2704
        29.2504         28.0004
  22449064.7814     686193.73746    482681.28246                  22449072.6724
        19.2504         18.5004
  21673584.3984   -1055453.82647   -750731.73646                  21673590.9024
        26.7504         25.2504
  24226167.6644    1048182.22745    699407.71345                  24226178.5554
         8.2504         10.0004
 02  8  5 19 37 45.0000000  0  5G11G14G21G25G31
  21877009.9064    -967501.34447   -695409.00446                  21877015.8244
        25.5004         23.0004
  21121436.2274     746474.90548    531647.33947                  21121442.1214
        28.2504         27.7504
  22453559.5634     709814.68046    501087.17746                  22453567.8634
        18.7504         18.7504
  21666505.1414   -1092653.84947   -779718.74547                  21666511.5274
        26.5004         25.7504
  24233145.1884    1084846.44445    727977.17045                  24233155.2344
         9.5004         10.0004
 02  8  5 19 38  0.0000000  0  5G11G14G21G25G31
  21870781.4384   -1000231.59847   -720913.09346                  21870787.3554
        25.5004         23.0004
  21126227.2344     771650.70848    551264.83147                  21126233.0704
        28.5004         27.7504
  22458055.5784     733441.30346    519497.50146                  22458063.7274
        19.2504         18.5004
  21659436.2344   -1129801.44747   -808664.88846                  21659442.8094
        26.5004         25.5004
  24240119.4694    1121492.27045    756532.26045                  24240128.9774
        10.0004         10.5004
 02  8  5 19 38 15.0000000  0  5G11G14G21G25G31
  21864565.3754   -1032899.33547   -746368.45646                  21864571.1994
        26.2504         23.2504
  21131021.5554     796844.92448    570896.67347                  21131027.1334
        28.7504         28.0004
  22462552.3444     757073.73846    537912.34846                  22462560.6914
        18.5004         18.2504
  21652377.1024   -1166896.37447   -837569.99447                  21652383.9964
        25.7504         25.7504
  24247089.8594    1158119.24945    785072.72145                  24247099.5904
        10.2504         10.5004
 02  8  5 19 38 30.0000000  0  5G11G14G21G25G31
  21858360.1174   -1065505.19047   -771775.60346                  21858366.1054
        25.7504         23.2504
  21135819.3984     822056.53848    590542.06647                  21135825.0944
        28.7504         27.5004
  22467049.8984     780711.02346    556330.98346                  22467058.9494
        18.0004         18.7504
  21645327.9774   -1203939.22747   -866434.52847                  21645334.7384
        25.5004         25.7504
  24254055.1484    1194726.24845    813597.56545                  24254064.1414
         9.5004         10.2504
 02  8  5 19 38 45.0000000  0  5G11G14G21G25G31
  21852168.5474   -1098043.68547   -797130.25446                  21852174.4774
        26.2504         23.0004
  21140621.5084     847290.47248    610204.86547                  21140626.7814
        29.7504         28.0004
  22471550.8284     804358.26446    574757.36846                  22471559.8324
        18.5004         18.7504
  21638289.7584   -1240924.56647   -895254.23946                  21638296.6294
        25.7504         25.2504
  24261019.0234    1231318.04945    842110.56545                  24261030.0784
         9.0004         10.2504
 02  8  5 19 39  0.0000000  0  6G20G11G14G21G25G31
  24252829.8674     -34639.98645
         9.2504
  21845988.8444   -1130518.88347   -822435.59446                  21845994.7274
        26.0004         23.0004
  21145426.5944     872542.47348    629881.74047                  21145431.9494
        29.2504         27.7504
  22476051.4924     828011.58046    593188.46746                  22476060.2624
        18.2504         18.5004
  21631261.7114   -1277856.37347   -924032.24046                  21631268.5434
        25.2504         25.2504
  24267978.3754    1267890.21145    870608.28145                  24267989.3714
         9.0004         10.0004
 02  8  5 19 39 15.0000000  0  6G20G11G14G21G25G31
  24243832.9064     -81916.95045
         8.7504
  21839821.6024   -1162925.99847   -847687.87946                  21839827.7424
        26.0004         23.0004
  21150236.1724     897816.64548    649575.87847                  21150241.4224
        29.0004         27.7504
  22480554.0394     851675.50046    611627.85346                  22480562.9144
        17.5004         18.7504
  21624244.9224   -1314729.92947   -952764.85146                  21624251.7074
        24.7504         25.2504
  24274934.7734    1304446.75645    899093.82145                  24274947.7384
         9.0004          9.5004
 02  8  5 19 39 30.0000000  0  6G20G11G14G21G25G31
  24234828.8054    -129234.57045
         8.2504
  21833668.5944   -1195262.08747   -872884.81846                  21833674.7464
        26.2504         23.5004
  21155050.5394     923115.48948    669289.25347                  21155056.1054
        29.2504         27.7504
  22485060.0704     875352.74746    630077.62346                  22485069.1334
        17.7504         18.7504
  21617240.1724   -1351542.17847   -981449.68946                  21617246.8404
        25.2504         25.0004
  24281888.2344    1340990.03245    927569.01045                  24281899.8164
         8.5004          8.7504
 02  8  5 19 39 45.0000000  0  6G20G11G14G21G25G31
  24225817.9064    -176589.40645
         8.7504
  21827529.2664   -1227523.65447   -898023.68346                  21827535.6764
        26.2504         23.7504
  21159869.7584     948441.91248    689024.11647                  21159875.7234
        28.7504         27.5004
  22489569.0314     899046.55646    648540.27646                  22489578.1294
        18.2504         18.5004
  21610247.2424   -1388289.61047  -1010084.01446                  21610254.2194
        25.5004         25.2504
  24288840.5634    1377522.79545    956035.99845                  24288852.9774
         8.2504          8.7504
 02  8  5 19 40  0.0000000  0  6G20G11G14G21G25G31
  24216798.6094    -223982.05045
         8.2504
  21821404.7814   -1259710.98947   -923104.70446                  21821410.7584
        27.7504         24.2504
  21164694.1174     973795.15348    708779.87947                  21164700.1054
        28.2504         27.2504
  22494080.8914     922756.17246    667015.25946                  22494090.3164
        17.5004         18.5004
  21603266.5864   -1424972.59847  -1038668.13446                  21603273.1724
        26.0004         25.2504
  24295790.6724    1414044.15145    984494.15045                  24295800.9774
         8.2504          8.5004
 02  8  5 19 40 15.0000000  0  6G20G11G14G21G25G31
  24207771.9694    -271411.35645    -24640.14055                  24207780.3634
         7.7504          8.7504
  21815294.0474   -1291822.76247   -948126.85346                  21815299.6724
        27.7504         24.2504
  21169523.6724     999176.11948    728557.23347                  21169529.5314
        28.2504         27.5004
  22498596.2194     946482.77046    685503.47746                  22498605.3284
        18.0004         18.2504
  21596298.5944   -1461589.82947  -1067201.01146                  21596305.0984
        25.5004         25.0004
  24302738.4844    1450554.85445   1012943.91545                  24302750.1134
         7.7504          7.7504
 02  8  5 19 40 30.0000000  0  6G20G11G14G21G25G31
  24198739.2974    -318875.28144    -61624.98645                  24198746.8594
         6.7504          8.5004
  21809197.8984   -1323856.75947   -973088.38946                  21809203.8984
        26.7504         23.7504
  21174359.4924    1024586.47048    748357.49647                  21174365.2814
        28.7504         27.5004
  22503115.0704     970228.34346    704006.47246                  22503124.1094
        18.2504         18.2504
  21589343.4224   -1498139.15847  -1095680.98646                  21589350.0084
        25.7504         24.7504
  24309683.3674    1487056.46544   1041386.67845                  24309697.0944
         6.7504          7.7504
 02  8  5 19 40 45.0000000  0  6G20G11G14G21G25G31
  24189701.1804    -366369.80144    -98633.64345                  24189711.1684
         6.2504          8.2504
  21803117.1254   -1355808.81047   -997986.07046                  21803123.0314
        26.0004         23.5004
  21179201.2814    1050029.98848    768183.60247                  21179207.1174
        28.7504         27.5004
  22507638.1414     993996.92946    722527.40746                  22507647.4494
        18.0004         18.2504
  21582402.1484   -1534616.19547  -1124104.62346                  21582408.6884
        26.0004         24.7504
  24316628.7504    1523552.56044   1069825.06145                  24316641.4224
         6.7504          7.2504
 02  8  5 19 41  0.0000000  0  6G20G11G14G21G25G31
  24180658.6644    -413893.33444   -135664.89845                  24180669.0864
         7.0004          8.0004
  21797052.8284   -1387677.08247  -1022818.48646                  21797058.8284
        26.5004         23.7504
  21184049.7194    1075507.92748    788036.52947                  21184055.4614
        29.0004         27.2504
  22512164.9144    1017790.01546    741067.43046                  22512173.9654
        16.5004         17.5004
  21575474.8444   -1571019.12947  -1152470.52446                  21575481.4064
        25.5004         24.7504
  24323574.1564    1560044.29844   1098260.08245                  24323586.8164
         7.0004          7.5004
 02  8  5 19 41 15.0000000  0  6G20G11G14G21G25G31
  24171609.7194    -461451.04445   -172722.83145                  24171618.5474
         8.2504          8.5004
  21791003.9844   -1419466.62447  -1047589.53846                  21791009.8674
        27.2504         24.2504
  21188903.3524    1101014.81848    807912.01347                  21188909.1054
        28.7504         27.5004
  22516696.9774    1041602.38546    759622.47946                  22516705.7584
        17.0004         17.0004
  21568560.7894   -1607353.01547  -1180782.61846                  21568567.4924
        25.5004         24.7504
  24330516.7504    1596526.00044   1126687.33645                  24330526.8914
         7.0004          7.0004
 02  8  5 19 41 30.0000000  0  6G20G11G14G21G25G31
  24162554.4304    -509033.56845   -209800.12345                  24162562.4964
         8.2504          8.2504
  21784971.2114   -1451167.93447  -1072291.83146                  21784977.1764
        26.5004         24.0004
  21193764.6724    1126559.73348    827817.12847                  21193770.3554
        29.2504         27.2504
  22521232.7034    1065443.54046    778199.97746                  22521241.1684
        15.7504         17.5004
  21561661.2664   -1643608.17347  -1209033.36246                  21561667.8634
        25.0004         24.7504
  24337459.2814    1633006.66945   1155113.76245                  24337466.9494
         7.5004          7.0004
 02  8  5 19 41 45.0000000  0  5G20G11G14G21G25
  24153496.1024    -556642.84845   -246898.21245                  24153503.5704
         9.5004          8.2504
  21778955.1174   -1482782.81947  -1096926.79446                  21778961.2234
        26.5004         23.7504
  21198632.5084    1152140.26148    847749.98647                  21198638.0514
        28.7504         27.2504
  22525775.0864    1089311.47446    796798.33946                  22525783.3284
        17.0004         17.0004
  21554777.2034   -1679786.59347  -1237224.31346                  21554783.7774
        24.7504         24.5004
 02  8  5 19 42  0.0000000  0  5G20G11G14G21G25
  24144430.0314    -604280.90445   -284018.71445                  24144436.7234
         9.7504          8.5004
  21772955.0084   -1514313.25247  -1121495.95146                  21772961.2074
        26.7504         23.7504
  21203506.7424    1177754.15648    867708.85647                  21203512.1094
        29.2504         27.2504
  22530322.5234    1113204.03346    815415.88446                  22530330.1804
        18.0004         17.5004
  21547906.4454   -1715890.26747  -1265357.01646                  21547913.1024
        24.2504         24.7504
 02  8  5 19 42 15.0000000  0  5G20G11G14G21G25
  24135360.3054    -651944.27845   -321158.97445                  24135367.7504
        10.2504          9.2504
  21766971.8984   -1545755.54847  -1145996.42546                  21766978.2274
        26.7504         23.2504
  21208387.7974    1203404.55348    887696.16747                  21208393.3754
        29.0004         27.2504
  22534874.5554    1137124.66746    834055.30046                  22534882.0704
        18.0004         17.2504
  21541051.2114   -1751915.17847  -1293428.34646                  21541057.6684
        24.5004         24.7504
 02  8  5 19 42 30.0000000  0  5G20G11G14G21G25
  24126285.0864    -699632.97045   -358318.92445                  24126293.6914
        10.0004          9.5004
  21761005.0784   -1577109.33047  -1170427.92746                  21761011.1484
        26.2504         23.2504
  21213275.6954    1229091.19548    907711.71047                  21213281.2274
        28.5004         26.7504
  22539431.6804    1161073.32646    852716.56646                  22539439.9694
        18.2504         17.7504
  21534210.7974   -1787861.24747  -1321438.23846                  21534217.5124
        24.5004         25.0004
 02  8  5 19 42 45.0000000  0  5G20G11G14G21G25
  24117205.4924    -747344.25745   -395496.53745                  24117213.3364
         9.7504         10.0004
  21755056.2194   -1608371.85147  -1194788.33046                  21755061.8444
        26.7504         23.2504
  21218171.2974    1254816.30048    927757.23147                  21218176.8054
        28.5004         26.5004
  22543995.2504    1185052.59946    871401.67646                  22544003.3754
        18.7504         17.5004
  21527386.1334   -1823725.73747  -1349384.56346                  21527392.8364
        25.0004         25.2504
 02  8  5 19 43  0.0000000  0  5G20G11G14G21G25
  24108121.7504    -795081.36545   -432694.18345                  24108130.0044
        10.0004          9.7504
  21749124.0314   -1639546.17847  -1219080.00146                  21749129.6914
        27.0004         23.2504
  21223072.7664    1280576.48147    947830.08547                  21223078.5314
        27.2504         26.2504
  22548563.3284    1209059.23046    890108.10846                  22548571.1484
        18.7504         17.7504
  21520576.3914   -1859511.69147  -1377269.69246                  21520582.9414
        25.2504         25.2504
 02  8  5 19 43 15.0000000  0  5G20G11G14G21G25
  24099033.0234    -842843.02445   -469911.01545                  24099042.0514
        10.7504         10.5004
  21743208.5004   -1670630.85747  -1243301.82246                  21743214.2544
        26.2504         23.7504
  21227981.6484    1306372.63747    967930.97547                  21227987.3794
        27.2504         26.2504
  22553136.9454    1233094.32146    908836.71846                  22553144.9884
        18.7504         18.0004
  21513781.7034   -1895217.64247  -1405092.48446                  21513788.3484
        26.2504         25.5004
 02  8  5 19 43 30.0000000  0  5G20G11G14G21G25
  24089940.0314    -890628.55945   -507146.47745                  24089948.0744
        11.0004         10.2504
  21737311.1254   -1701625.15847  -1267453.20246                  21737316.7974
        27.2504         23.7504
  21232897.7504    1332205.17847    988060.21447                  21232903.6564
        27.7504         26.2504
  22557716.4304    1257158.60246    927588.06246                  22557724.7774
        19.2504         18.2504
  21507002.8914   -1930842.73747  -1432852.27247                  21507009.5234
        27.0004         26.0004
 02  8  5 19 43 45.0000000  0  5G20G11G14G21G25
  24080842.7504    -938434.75645   -544398.03045                  24080851.6024
        11.2504         10.7504
  21731430.7734   -1732525.75147  -1291531.57346                  21731436.2234
        27.7504         23.5004
  21237820.5784    1358076.89547   1008219.97747                  21237826.7304
        26.7504         26.2504
  22562301.8284    1281255.08046    946364.50446                  22562310.7154
        18.7504         18.5004
  21500239.3674   -1966383.69847  -1460546.49847                  21500245.9064
        26.7504         26.0004
 02  8  5 19 44  0.0000000  0  5G20G11G14G21G25
  24071741.2114    -986263.51345   -581667.11745                  24071748.9844
        11.2504         11.0004
  21725567.5704   -1763334.32947  -1315538.25446                  21725572.9734
        26.2504         23.2504
  21242751.2504    1383985.56747   1028408.54347                  21242757.5434
        27.7504         26.2504
  22566893.1024    1305381.80746    965164.50546                  22566902.0124
        18.5004         18.2504
  21493491.7814   -2001842.28747  -1488176.54247                  21493498.5434
        27.0004         25.7504
 02  8  5 19 44 15.0000000  0  5G20G11G14G21G25
  24062636.1954   -1034110.33745   -618950.33445                  24062644.9774
        11.0004         10.7504
  21719723.6334   -1794046.13547  -1339469.51046                  21719729.2934
        27.0004         23.0004
  21247689.4064    1409935.47947   1048629.23547                  21247695.3364
        27.5004         26.0004
  22571491.4924    1329543.46246    983991.73246                  22571500.2034
        18.7504         18.2504
  21486760.8594   -2037213.74347  -1515738.69047                  21486767.2464
        26.5004         25.7504
 02  8  5 19 44 30.0000000  0  5G20G11G14G21G25
  24053527.0704   -1081977.99145   -656249.75945                  24053535.2304
        11.0004         10.7504
  21713897.3524   -1824663.82947  -1363327.43746                  21713902.9534
        27.2504         23.2504
  21252634.5164    1435923.48747   1068879.60447                  21252640.2114
        27.0004         25.7504
  22576094.4614    1353737.13646   1002843.89246                  22576103.0084
        17.7504         17.7504
  21480046.2584   -2072500.79847  -1543235.07246                  21480052.4454
        27.0004         25.2504
 02  8  5 19 44 45.0000000  0  5G20G11G14G21G25
  24044414.2584   -1129863.50145   -693563.10045                  24044422.8524
        11.0004         10.5004
  21708089.3754   -1855184.25547  -1387109.57746                  21708094.6374
        26.7504         22.0004
  21257587.8204    1461952.29047   1089161.78446                  21257593.4924
        27.2504         24.7504
  22580705.4064    1377965.73246   1021723.28246                  22580713.9534
        18.0004         16.5004
  21473347.6254   -2107700.06747  -1570663.04446                  21473353.7664
        26.5004         24.5004
 02  8  5 19 45  0.0000000  0  5G20G11G14G21G25
  24035298.4924   -1177767.63345   -730890.94645                  24035307.3094
        10.5004         10.7504
  21702300.0164   -1885608.14247  -1410816.49546                  21702305.5004
        27.0004         23.2504
  21262548.5234    1488020.73447   1109474.83647                  21262554.4534
        27.2504         25.7504
  22585321.8914    1402228.63746   1040629.38946                  22585330.9414
        16.7504         17.2504
  21466665.6334   -2142812.18047  -1598023.10546                  21466671.6914
        26.0004         25.5004
 02  8  5 19 45 15.0000000  0  5G20G11G14G21G25
  24026178.2114   -1225693.01545   -768235.33045                  24026186.7114
        10.0004         10.2504
  21696528.5864   -1915937.84947  -1434449.99946                  21696534.0944
        27.5004         23.5004
  21267516.2894    1514126.09447   1129816.66347                  21267522.0204
        27.7504         25.7504
  22589945.2814    1426522.99146   1059560.01046                  22589954.7774
        16.7504         16.7504
  21460000.6644   -2177839.64747  -1625317.20746                  21460006.7704
        26.5004         25.5004
 02  8  5 19 45 30.0000000  0  5G20G11G14G21G25
  24017055.6334   -1273636.36245   -805593.72145                  24017064.9654
        11.0004         10.7504
  21690775.5634   -1946169.97448  -1458007.49146                  21690780.7894
        28.0004         24.0004
  21272491.4924    1540271.13847   1150189.40646                  21272497.2234
        27.2504         25.5004
  22594575.0004    1450851.89946   1078517.55346                  22594584.2504
        17.0004         17.0004
  21453351.6564   -2212779.16047  -1652542.77247                  21453357.8204
        26.2504         25.7504
 02  8  5 19 45 45.0000000  0  5G20G11G14G21G25
  24007928.3834   -1321598.45045   -842966.71145                  24007935.5124
        10.0004         10.0004
  21685040.6334   -1976305.20647  -1481489.47046                  21685046.0474
        27.5004         23.7504
  21277474.0314    1566454.76047   1170592.21147                  21277479.8324
        27.0004         25.7504
  22599211.2894    1475214.44746   1097501.31346                  22599220.7734
        17.0004         16.7504
  21446719.3524   -2247631.28147  -1679700.24447                  21446725.7624
        26.2504         25.7504
 02  8  5 19 46  0.0000000  0  5G20G11G14G21G25
  23998797.6414   -1369577.06245   -880352.59045                  23998806.1884
        10.0004         10.2504
  21679325.0784   -2006341.29047  -1504894.19446                  21679330.8444
        27.7504         23.7504
  21282464.3754    1592678.84247   1191026.54546                  21282469.9414
        27.2504         25.5004
  22603854.2814    1499613.04546   1116513.16846                  22603863.6954
        17.7504         16.2504
  21440104.4064   -2282393.59047  -1706787.72547                  21440110.7114
        26.5004         26.2504
 02  8  5 19 46 15.0000000  0  5G20G11G14G21G25
  23989666.0394   -1417571.23945   -917750.57045                  23989674.7974
        11.0004         10.7504
  21673628.5474   -2036277.02048  -1528220.71946                  21673633.8444
        28.2504         24.0004
  21287462.5084    1618944.09147   1211492.96346                  21287468.3324
        27.2504         25.2504
  22608504.2814    1524048.53846   1135553.76446                  22608512.8404
        17.7504         15.7504
  21433506.6954   -2317065.01547  -1733804.38747                  21433513.0474
        26.7504         26.2504
 02  8  5 19 46 30.0000000  0  5G20G11G14G21G25
  23980528.9694   -1465582.84045   -955162.15945                  23980537.1644
        10.7504         10.5004
  21667950.9224   -2066113.93648  -1551470.25246                  21667956.0784
        28.7504         24.0004
  21292468.0394    1645248.35447   1231989.76346                  21292473.6994
        27.2504         25.2504
  22613160.1414    1548518.98946   1154621.60946                  22613168.1844
        16.7504         15.2504
  21426925.7734   -2351647.23447  -1760751.54447                  21426932.1024
        26.7504         26.2504
 02  8  5 19 46 45.0000000  0  5G20G11G14G21G25
  23971389.8444   -1513609.93845   -992585.82345                  23971397.5594
        10.7504         11.2504
  21662292.2424   -2095850.09648  -1574641.26446                  21662297.5044
        29.0004         24.7504
  21297480.6954    1671593.24747   1252518.24846                  21297486.5904
        25.5004         25.5004
  22617824.5394    1573026.30446   1173718.18646                  22617832.2894
        18.0004         15.5004
  21420362.0554   -2386138.17447  -1787627.57347                  21420368.2664
        26.5004         26.2504
 02  8  5 19 47  0.0000000  0  5G20G11G14G21G25
  23962247.8204   -1561651.30745  -1030020.60045                  23962257.1764
        10.5004         10.7504
  21656653.3984   -2125484.14248  -1597732.70746                  21656658.4964
        30.0004         25.0004
  21302502.1414    1697979.59447   1273079.02146                  21302508.1294
        26.7504         25.2504
  22622494.8834    1597571.38546   1192844.17446                  22622502.9024
        17.7504         15.2504
  21413816.8444   -2420536.45547  -1814431.40647                  21413822.9844
        27.0004         26.2504
 02  8  5 19 47 15.0000000  0  5G20G11G14G21G25
  23953101.9304   -1609708.44345  -1067467.66845                  23953112.1884
         9.7504         10.7504
  21651033.2034   -2155017.46248  -1620745.66946                  21651038.3714
        29.2504         24.7504
  21307531.1804    1724405.58447   1293670.68146                  21307536.9924
        27.0004         25.5004
  22627172.7114    1622152.94446   1211998.59646                  22627180.1914
        18.2504         15.7504
  21407288.4774   -2454843.52247  -1841164.15747                  21407294.4184
        27.0004         26.2504
 02  8  5 19 47 30.0000000  0  5G20G11G14G21G25
  23943955.2504   -1657779.97745  -1104925.94445                  23943965.1334
        10.2504         10.7504
  21645432.3524   -2184448.59248  -1643678.99646                  21645437.7194
        29.0004         24.7504
  21312567.6804    1750872.40047   1314294.15646                  21312573.5044
        27.5004         25.5004
  22631858.0784    1646772.21746   1231182.40746                  22631865.7114
        18.5004         15.5004
  21400777.4224   -2489057.77447  -1867824.59047                  21400783.3874
        26.7504         26.2504
 02  8  5 19 47 45.0000000  0  5G20G11G14G21G25
  23934804.3754   -1705868.67145  -1142397.56145                  23934813.5314
        10.5004         10.7504
  21639850.6564   -2213780.15748  -1666534.74446                  21639856.1764
        29.0004         25.0004
  21317611.5634    1777376.86848   1334946.97246                  21317617.1054
        28.0004         25.5004
  22636549.6564    1671426.56146   1250393.52746                  22636557.4534
        18.5004         15.5004
  21394283.8134   -2523181.81347  -1894414.72047                  21394289.8484
        27.0004         26.2504
 02  8  5 19 48  0.0000000  0  5G20G11G14G21G25
  23925651.1724   -1753969.32045  -1179878.52645                  23925659.5204
        11.0004         10.2504
  21634289.5474   -2243006.72948  -1689308.68346                  21634294.8554
        30.2504         25.5004
  21322663.3054    1803923.91347   1355632.96546                  21322668.9414
        27.5004         25.5004
  22641249.4614    1696120.88146   1269635.80646                  22641257.5164
        19.7504         15.5004
  21387808.2034   -2557210.36547  -1920930.45447                  21387814.0634
        27.0004         26.5004
 02  8  5 19 48 15.0000000  0  5G20G11G14G21G25
  23916496.5164   -1802082.32645  -1217369.10345                  23916503.4694
        11.7504         10.0004
  21628747.8284   -2272128.66748  -1712001.08847                  21628753.1254
        30.0004         25.7504
  21327722.8284    1830512.58947   1376351.39946                  21327728.4304
        27.2504         25.2504
  22645955.5634    1720854.61346   1288908.79146                  22645963.9454
        18.7504         16.0004
  21381350.9774   -2591143.86747  -1947372.12547                  21381356.9534
        27.7504         27.0004
 02  8  5 19 48 30.0000000  0  5G20G11G14G21G25
  23907337.4144   -1850209.93945  -1254871.04645                  23907344.6844
        10.7504         10.0004
  21623225.3594   -2301147.94348  -1734613.49547                  21623230.6914
        30.0004         25.7504
  21332789.6804    1857140.52947   1397100.41946                  21332795.5164
        27.0004         25.2504
  22650669.6804    1745625.41646   1308210.67246                  22650677.7704
        18.5004         15.7504
  21374911.4064   -2624984.15248  -1973741.15247                  21374917.4774
        28.2504         27.2504
 02  8  5 19 48 45.0000000  0  5G20G11G14G21G25
  23898175.8914   -1898353.49345  -1292385.42545                  23898182.9024
        10.5004         10.0004
  21617722.4224   -2330065.90848  -1757146.95447                  21617728.2464
        30.2504         26.0004
  21337863.7734    1883806.00647   1417878.69846                  21337869.6094
        26.7504         25.2504
  22655389.4924    1770432.16246   1327540.55346                  22655398.3554
        17.5004         16.0004
  21368489.3204   -2658732.52548  -2000038.55547                  21368495.5204
        28.2504         27.7504
 02  8  5 19 49  0.0000000  0  5G20G11G14G21G25
  23889011.9844   -1946508.63145  -1329908.84645                  23889019.8054
         9.7504         10.2504
  21612239.4774   -2358877.93048  -1779597.86547                  21612245.3244
        30.2504         26.2504
  21342946.3834    1910513.21347   1438689.49946                  21342952.2544
        27.5004         25.2504
  22660117.7894    1795279.17646   1346901.82146                  22660127.1564
        17.0004         15.7504
  21362085.6414   -2692384.48948  -2026260.84647                  21362091.8524
        28.0004         28.0004
 02  8  5 19 49 15.0000000  0  5G20G11G14G21G25
  23879845.3204   -1994676.31245  -1367442.04245                  23879854.3244
         9.2504         10.0004
  21606777.0394   -2387584.94548  -1801966.96247                  21606782.5234
        30.7504         26.5004
  21348036.3834    1937260.69347   1459531.66546                  21348042.4304
        27.2504         25.5004
  22664853.0864    1820165.11546   1366293.41746                  22664862.2774
        16.2504         15.5004
  21355700.2274   -2725940.89348  -2052408.66947                  21355706.3094
        28.0004         27.7504
 02  8  5 19 49 30.0000000  0  5G20G11G14G21G25
  23870676.3444   -2042860.66345  -1404988.25645                  23870684.5634
         9.2504         10.0004
  21601333.6644   -2416190.84348  -1824257.26447                  21601339.0204
        30.7504         26.2504
  21353132.7584    1964044.12947   1480401.85846                  21353138.8164
        26.7504         25.5004
  22669595.9144    1845086.05746   1385712.27946                  22669605.3634
        16.5004         15.5004
  21349331.8754   -2759405.62147  -2078485.05047                  21349338.0864
        27.7504         27.7504
 02  8  5 19 49 45.0000000  0  5G20G11G14G21G25
  23861503.4614   -2091063.98745  -1442549.25745                  23861512.1254
         9.2504         10.0004
  21595908.7734   -2444697.96448  -1846470.59247                  21595913.9414
        30.2504         26.5004
  21358235.6724    1990860.93847   1501298.06446                  21358241.5314
        26.7504         25.2504
  22674344.4924    1870039.44846   1405156.43646                  22674354.1644
        16.0004         15.5004
  21342980.8674   -2792780.85247  -2104491.69847                  21342987.1484
        27.0004         27.2504
 02  8  5 19 49 59.9990000  0  5G20G11G14G21G25
  23852328.6754   -2139275.78145  -1480116.86045                  23852337.5504
        10.0004          9.7504
  21590504.9724   -2473097.10448  -1868599.77647                  21590510.1284
        31.5004         27.0004
  21363346.4484    2017716.15547   1522224.18046                  21363352.4374
        27.7504         25.2504
  22679100.6204    1895030.83246   1424630.18546                  22679110.0814
        16.7504         15.0004
  21336648.4644   -2826057.11247  -2130421.22547                  21336654.7104
        26.5004         26.7504
 02  8  5 19 50 14.9990000  0  5G20G11G14G21G25
  23843152.0504   -2187502.00445  -1517695.68945                  23843159.0734
        10.5004          9.7504
  21585120.6444   -2501391.33848  -1890647.22347                  21585125.8474
        31.2504         27.2504
  21368465.1364    2044613.57147   1543183.18446                  21368470.7264
        27.7504         25.2504
  22683863.9564    1920064.01246   1444136.50946                  22683873.1364
        16.2504         14.7504
  21330334.0734   -2859238.18647  -2156276.57847                  21330340.4834
        26.5004         27.0004
 02  8  5 19 50 29.9990000  0  5G20G11G14G21G25
  23833971.8084   -2235746.29145  -1555288.62145                  23833978.7494
        11.0004          9.7504
  21579755.4644   -2529585.49548  -1912616.68247                  21579760.9834
        30.5004         26.7504
  21373589.7374    2071544.20248   1564168.07446                  21373595.2454
        28.0004         25.5004
  22688634.1674    1945130.47146   1463668.76446                  22688643.3824
        16.7504         14.7504
  21324037.5584   -2892328.55647  -2182061.24847                  21324043.8624
        26.7504         26.5004
 02  8  5 19 50 44.9990000  0  5G20G11G14G21G25
  23824788.6754   -2284001.65345  -1592890.15945                  23824795.9914
        10.2504          9.5004
  21574410.3864   -2557672.32048  -1934502.50347                  21574416.0934
        30.0004         26.5004
  21378722.0034    2098514.61348   1585183.96246                  21378727.7334
        28.0004         25.5004
  22693411.2694    1970236.99446   1483232.22046                  22693420.6014
        16.2504         15.0004
  21317758.9014   -2925321.08347  -2207769.68947                  21317765.0894
        27.0004         26.5004
 02  8  5 19 50 59.9990000  0  5G20G11G14G21G25
  23815603.8394   -2332269.14345  -1630501.14445                  23815611.0384
        10.5004          9.7504
  21569085.9804   -2585652.87448  -1956305.52247                  21569091.3824
        30.2504         26.7504
  21383861.3084    2125523.61947   1606229.92146                  21383867.3664
        26.7504         25.2504
  22698195.9404    1995382.57146   1502826.13546                  22698204.8624
        16.0004         15.0004
  21311499.4254   -2958216.66648  -2233402.59247                  21311505.6474
        28.7504         26.7504
 02  8  5 19 51 14.9990000  0  5G20G11G14G21G25
  23806415.0264   -2380551.83245  -1668123.94245                  23806422.3314
         9.7504         10.0004
  21563781.0034   -2613530.16048  -1978028.07547                  21563786.4644
        30.0004         26.7504
  21389007.6754    2152567.73947   1627303.25146                  21389013.8864
        26.7504         25.2504
  22702988.9094    2020563.99646   1522447.98046                  22702997.3274
        18.0004         15.0004
  21305257.2534   -2991018.28548  -2258962.27747                  21305263.3824
        28.2504         26.5004
 02  8  5 19 51 29.9990000  0  5G20G11G14G21G25
  23797224.3944   -2428845.74445  -1705755.51345                  23797231.7454
         9.0004          9.2504
  21558496.5034   -2641300.08448  -1999666.96647                  21558501.8824
        30.0004         26.2504
  21394161.4404    2179650.59847   1648406.75346                  21394167.3584
        27.0004         25.0004
  22707788.1754    2045785.06846   1542100.71446                  22707795.9834
        18.0004         15.2504
  21299033.7144   -3023721.98347  -2284445.65547                  21299039.7264
        27.7504         26.7504
 02  8  5 19 51 44.9990000  0  5G20G11G14G21G25
  23788031.9954   -2477152.78645  -1743397.32645                  23788038.8044
         9.2504          9.0004
  21553232.3394   -2668964.42948  -2021223.58747                  21553237.7184
        30.0004         26.5004
  21399322.1284    2206769.92447   1669538.66846                  21399328.0344
        27.0004         25.2504
  22712594.9334    2071043.80046   1561782.79746                  22712602.3554
        18.2504         15.5004
  21292829.0034   -3056329.35348  -2309853.98047                  21292835.0734
        28.0004         26.7504
 02  8  5 19 51 59.9990000  0  5G20G11G14G21G25
  23778836.5264   -2525476.12145  -1781051.81445                  23778845.0384
         9.5004          9.2504
  21547987.4724   -2696526.14148  -2042700.23547                  21547992.8274
        30.5004         26.5004
  21404489.2764    2233922.37347   1690696.40046                  21404495.1594
        27.5004         25.5004
  22717408.1594    2096337.25946   1581491.94746                  22717415.2304
        18.5004         15.5004
  21286641.7844   -3088843.43347  -2335189.60447                  21286647.7724
        27.7504         27.0004
 02  8  5 19 52 14.9990000  0  5G20G11G14G21G25
  23769638.9174   -2573809.73445  -1818714.29145                  23769647.8044
        10.0004         10.2504
  21542763.0734   -2723979.17448  -2064092.19447                  21542768.7224
        29.0004         26.2504
  21409663.5264    2261113.52047   1711884.29346                  21409669.3864
        27.2504         25.5004
  22722229.1514    2121671.15046   1601232.58246                  22722236.5974
        18.5004         15.7504
  21280473.0584   -3121258.20847  -2360447.84647                  21280479.2104
        27.7504         27.2504
 02  8  5 19 52 29.9990000  0  5G20G11G14G21G25
  23760440.3314   -2622152.04045  -1856383.58745                  23760448.9724
        11.2504         10.5004
  21537560.0194   -2751321.83248  -2085398.15247                  21537565.7614
        28.7504         26.0004
  21414844.9564    2288344.57147   1733103.27546                  21414850.8624
        26.7504         25.2504
  22727057.9874    2147046.83246   1621005.77846                  22727065.6674
        18.5004         15.5004
  21274324.2764   -3153571.98748  -2385627.39247                  21274330.6284
        28.0004         27.5004
 02  8  5 19 52 44.9990000  0  5G20G11G14G21G25
  23751239.0194   -2670504.81545  -1894061.04545                  23751247.6364
        11.2504         11.0004
  21532377.6984   -2778555.76348  -2106619.39146                  21532383.4874
        28.5004         25.5004
  21420034.5584    2315613.53047   1754351.79746                  21420040.4294
        27.2504         25.2504
  22731894.4564    2172462.33646   1640810.01546                  22731902.8744
        18.0004         15.7504
  21268193.8474   -3185786.36748  -2410729.48047                  21268200.1754
        28.0004         27.5004
 02  8  5 19 52 59.9990000  0  5G20G11G14G21G25
  23742036.4254   -2718865.35945  -1931744.56245                  23742045.5344
        11.7504         11.5004
  21527216.3624   -2805678.13748  -2127753.70646                  21527221.8004
        28.5004         25.5004
  21425231.2304    2342922.80047   1775631.72246                  21425237.1594
        26.5004         25.2504
  22736738.1364    2197920.59246   1660647.56146                  22736747.7144
        16.5004         15.2504
  21262083.6834   -3217898.46748  -2435751.88147                  21262089.9524
        28.5004         27.7504
 02  8  5 19 53 14.9990000  0  5G20G11G14G21G25
  23732831.0114   -2767239.18346  -1969438.42245                  23732839.3944
        12.2504         11.7504
  21522074.9804   -2832694.43247  -2148805.35746                  21522080.4644
        27.2504         25.5004
  21430434.5424    2370266.57947   1796938.53746                  21430440.2964
        26.7504         25.2504
  22741590.1834    2223416.27646   1680514.27346                  22741599.5734
        15.5004         15.2504
  21255991.2144   -3249913.82648  -2460698.88547                  21255997.5774
        28.7504         28.0004
 02  8  5 19 53 29.9990000  0  5G20G11G14G21G25
  23723623.3554   -2815624.25245  -2007141.02645                  23723631.2924
        11.5004         11.5004
  21516954.5654   -2859602.55647  -2169772.70646                  21516960.4014
        27.2504         25.0004
  21435644.6514    2397646.54047   1818273.55746                  21435650.5114
        27.0004         25.2504
  22746448.3784    2248951.19746   1700411.56346                  22746457.6874
        15.0004         15.2504
  21249917.5034   -3281830.47348  -2485568.97447                  21249923.9014
        28.7504         27.7504
 02  8  5 19 53 44.9990000  0  5G20G11G14G21G25
  23714414.1904   -2864019.32946  -2044851.47445                  23714423.4524
        12.0004         11.0004
  21511855.3084   -2886401.03948  -2190654.63146                  21511860.9914
        28.0004         25.2504
  21440862.5584    2425063.56947   1839637.46346                  21440868.6054
        27.7504         25.2504
  22751315.4804    2274526.28846   1720340.15446                  22751325.2574
        14.7504         15.0004
  21243863.2844   -3313646.78548  -2510360.88347                  21243869.4724
        28.7504         27.7504
 02  8  5 19 53 59.9990000  0  5G20G11G14G21G25
  23705202.2764   -2912427.98646  -2082572.46845                  23705210.5304
        12.5004         11.2504
  21506775.3624   -2913093.33747  -2211453.81746                  21506781.2224
        27.2504         25.0004
  21446086.0814    2452513.68248   1861027.12746                  21446091.9294
        28.0004         25.5004
  22756189.3554    2300137.71946   1740297.06646                  22756198.9214
        14.5004         15.2504
  21237827.0424   -3345366.29148  -2535077.36147                  21237833.1124
        28.2504         27.5004
 02  8  5 19 54 14.9990000  0  5G20G11G14G21G25
  23695989.0974   -2960843.06046  -2120298.45845                  23695995.4724
        12.2504         11.0004
  21501718.0114   -2939672.54647  -2232164.88246                  21501723.7534
        27.7504         25.0004
  21451316.9014    2480003.62847   1882447.84146                  21451322.8434
        26.7504         25.2504
  22761071.8944    2325792.66546   1760287.88946                  22761081.5544
        15.2504         15.0004
  21231810.8154   -3376981.79048  -2559712.79947                  21231816.7804
        28.0004         27.5004
 02  8  5 19 54 29.9990000  0  5G20G11G14G21G25
  23686774.4334   -3009269.93546  -2158033.66345                  23686780.3744
        12.7504         10.7504
  21496680.5734   -2966143.62247  -2252791.68946                  21496686.4334
        27.2504         25.0004
  21456554.3944    2507527.99347   1903895.38746                  21456560.2534
        26.5004         25.2504
  22765961.2534    2351485.94446   1780308.57846                  22765970.4214
        15.2504         14.7504
  21225813.6754   -3408498.40648  -2584271.18547                  21225819.7104
        28.2504         27.0004
 02  8  5 19 54 44.9990000  0  5G20G11G14G21G25
  23677557.3154   -3057702.98845  -2195773.64245                  23677564.1124
        11.7504         10.5004
  21491664.9644   -2992500.75347  -2273329.69446                  21491670.5074
        27.7504         25.2504
  21461799.9874    2535091.99547   1925373.81046                  21461805.9054
        26.7504         25.2504
  22770859.3314    2377222.92446   1800363.33246                  22770868.4404
        15.7504         14.7504
  21219835.7064   -3439910.61848  -2608748.21147                  21219841.7534
        28.2504         27.0004
 02  8  5 19 54 59.9990000  0  5G20G11G14G21G25
  23668339.2534   -3106143.98645  -2233519.83845                  23668345.9444
        11.7504         10.2504
  21486670.9564   -3018745.72848  -2293780.31446                  21486676.3234
        28.2504         25.0004
  21467052.6124    2562693.46147   1946881.42046                  21467058.6244
        27.5004         25.0004
  22775764.5034    2403001.85646   1820450.74446                  22775774.1164
        15.7504         15.0004
  21213877.8084   -3471219.88348  -2633145.02047                  21213883.8904
        28.5004         27.2504
 02  8  5 19 55 14.9990000  0  5G20G11G14G21G25
  23659120.3314   -3154594.06946  -2271273.13145                  23659127.2964
        12.5004         11.2504
  21481697.6124   -3044879.66448  -2314144.40446                  21481702.9804
        28.0004         25.0004
  21472311.9334    2590330.97747   1968417.12746                  21472317.7694
        27.5004         25.5004
  22780677.8944    2428821.30546   1840569.75046                  22780686.6164
        16.0004         15.0004
  21207939.0114   -3502427.38748  -2657462.52547                  21207945.1754
        28.5004         27.5004
 02  8  5 19 55 29.9990000  0  5G20G11G14G21G25
  23649898.8864   -3203048.37145  -2309029.68845                  23649906.3664
        11.5004         11.0004
  21476746.5974   -3070897.71147  -2334418.19746                  21476752.0344
        27.7504         25.2504
  21477579.0974    2618008.95248   1989984.35947                  21477584.6514
        28.0004         25.7504
  22785599.6284    2454686.08246   1860724.06546                  22785608.6554
        16.0004         15.2504
  21202020.8474   -3533528.30648  -2681696.99547                  21202026.9764
        29.5004         27.7504
 02  8  5 19 55 44.9990000  0  5G20G11G14G21G25
  23640677.5424   -3251510.55646  -2346792.40845                  23640684.7654
        12.0004         11.5004
  21471816.7144   -3096803.30847  -2354604.37346                  21471822.2574
        27.7504         25.0004
  21482852.9484    2645723.53048   2011580.12046                  21482858.4804
        28.2504         25.5004
  22790529.5504    2480592.56246   1880910.88746                  22790538.1794
        16.5004         15.2504
  21196122.4644   -3564525.99448  -2705851.02847                  21196128.4054
        30.7504         28.0004
 02  8  5 19 55 59.9990000  0  5G20G11G14G21G25
  23631452.2224   -3299984.00045  -2384563.90845                  23631459.8314
        10.7504         11.7504
  21466907.8864   -3122599.72647  -2374705.46246                  21466913.7574
        27.5004         25.0004
  21488132.7304    2673471.12247   2033201.59846                  21488138.4604
        26.7504         25.2504
  22795466.8784    2506537.27446   1901127.49746                  22795475.0734
        17.0004         15.7504
  21190243.0194   -3595423.66748  -2729927.12147                  21190248.6204
        31.2504         27.7504
 02  8  5 19 56 14.9990000  0  5G20G11G14G21G25
  23622227.4724   -3348465.16845  -2422341.39745                  23622235.5264
        11.5004         11.5004
  21462020.7614   -3148283.32648  -2394718.64146                  21462026.5384
        28.2504         25.2504
  21493419.6834    2701254.74047   2054851.14846                  21493425.5304
        26.7504         25.2504
  22800411.8944    2532523.46446   1921376.42346                  22800420.2064
        17.0004         16.0004
  21184382.7304   -3626217.87848  -2753922.59347                  21184388.7884
        30.2504         27.7504
 02  8  5 19 56 29.9990000  0  5G20G11G14G21G25
  23613001.4174   -3396950.65645  -2460122.27345                  23613009.1674
        11.7504         11.5004
  21457155.4014   -3173850.71348  -2414641.26946                  21457160.9684
        28.2504         25.2504
  21498714.4644    2729077.52647   2076531.22446                  21498720.3124
        27.2504         25.2504
  22805365.5974    2558554.43246   1941660.23846                  22805374.8704
        17.2504         16.2504
  21178542.9564   -3656905.07148  -2777834.67147                  21178548.9094
        29.5004         27.7504
 02  8  5 19 56 44.9990000  0  5G20G11G14G21G25
  23603772.6594   -3445444.96345  -2497910.02845                  23603780.1754
        11.2504         11.0004
  21452310.5424   -3199306.10147  -2434476.62746                  21452316.4484
        26.5004         25.0004
  21504016.0034    2756934.70548   2098238.09846                  21504021.6874
        28.0004         25.0004
  22810327.1984    2584625.77946   1961975.50946                  22810336.5074
        17.7504         16.5004
  21172723.1674   -3687489.38848  -2801666.59447                  21172729.2024
        29.5004         27.5004
 02  8  5 19 56 59.9990000  0  5G20G11G14G21G25
  23594543.0654   -3493948.40445  -2535704.85545                  23594551.0264
        10.7504         10.7504
  21447488.0504   -3224649.87247  -2454224.99546                  21447494.3554
        27.0004         24.7504
  21509323.2694    2784825.66647   2119971.29246                  21509329.1984
        27.0004         24.7504
  22815296.0194    2610737.10546   1982321.94546                  22815305.3044
        17.7504         16.5004
  21166922.5194   -3717971.32848  -2825418.73547                  21166928.6244
        29.0004         27.5004
 02  8  5 19 57 14.9990000  0  5G20G11G14G21G25
  23585311.5344   -3542460.84345  -2573506.70345                  23585318.2844
        11.0004         10.5004
  21442686.7454   -3249881.86747  -2473886.27746                  21442692.6514
        27.7504         24.7504
  21514636.9174    2812750.18447   2141730.64146                  21514642.7414
        27.2504         25.0004
  22820272.3154    2636888.34546   2002699.47346                  22820281.4604
        16.7504         16.0004
  21161141.3704   -3748350.71248  -2849090.96047                  21161147.4054
        28.5004         27.5004
 02  8  5 19 57 29.9990000  0  5G20G11G14G21G25
  23576078.9644   -3590979.86945  -2611313.70245                  23576085.7844
        11.7504         10.7504
  21437906.8314   -3274999.53447  -2493458.49546                  21437912.7024
        27.0004         24.7504
  21519957.2924    2840710.23247   2163517.67246                  21519963.3974
        26.7504         25.0004
  22825256.6364    2663081.80746   2023109.91246                  22825266.3554
        16.0004         15.7504
  21155380.2844   -3778625.08948  -2872681.36247                  21155386.3904
        28.5004         27.7504
 02  8  5 19 57 44.9990000  0  5G20G11G14G21G25
  23566844.1904   -3639505.20145  -2649125.59545                  23566850.9404
        11.7504         10.7504
  21433148.9564   -3300002.56847  -2512941.36546                  21433154.9564
        27.2504         24.7504
  21525285.0344    2868705.86347   2185332.43746                  21525290.9874
        27.7504         24.7504
  22830249.4804    2689317.63846   2043553.36646                  22830259.1514
        16.2504         15.5004
  21149639.3554   -3808794.10348  -2896189.67047                  21149645.2844
        29.2504         28.0004
 02  8  5 19 57 59.9990000  0  5G20G11G14G21G25
  23557608.8314   -3688037.94946  -2686943.25745                  23557616.2884
        12.2504         11.7504
  21428412.7924   -3324892.13448  -2532335.81946                  21428418.2534
        28.0004         25.2504
  21530619.0654    2896735.55048   2207173.73146                  21530625.0424
        28.0004         25.0004
  22835249.0424    2715594.64046   2064028.90046                  22835258.1984
        15.0004         15.5004
  21143918.4804   -3838858.78948  -2919616.68347                  21143924.4094
        30.0004         28.5004
 02  8  5 19 58 14.9990000  0  5G20G11G14G21G25
  23548371.9174   -3736577.45745  -2724766.20945                  23548380.2064
        11.7504         11.7504
  21423698.4014   -3349667.19648  -2551641.06146                  21423703.8044
        28.0004         25.2504
  21535958.7534    2924799.75847   2229041.92346                  21535964.6474
        26.7504         24.7504
  22840256.8944    2741913.43646   2084537.00646                  22840266.5074
        14.2504         15.5004
  21138217.0814   -3868818.37148  -2942961.78747                  21138223.0464
        29.7504         29.0004
 02  8  5 19 58 29.9990000  0  5G20G11G14G21G25
  23539134.0974   -3785122.05645  -2762593.11245                  23539142.7264
        11.7504         11.7504
  21419005.4804   -3374326.09847  -2570855.77846                  21419011.3394
        27.2504         25.0004
  21541306.7764    2952899.68348   2250937.94146                  21541312.4724
        28.2504         24.7504
  22845274.3864    2768275.62446   2105078.92146                  22845284.1054
        14.2504         15.0004
  21132536.5424   -3898671.10648  -2966223.64347                  21132542.5424
        30.5004         28.7504
 02  8  5 19 58 44.9990000  0  5G20G11G14G21G25
  23529896.1834   -3833671.79346  -2800424.06345                  23529905.0694
        12.0004         11.7504
  21414335.3234   -3398868.83047  -2589979.97346                  21414340.9834
        27.2504         24.5004
  21546660.6124    2981035.00448   2272861.54746                  21546666.1674
        28.5004         25.0004
  22850298.3864    2794681.04946   2125654.52446                  22850308.0814
        13.5004         14.5004
  21126876.2614   -3928416.87848  -2989402.14747                  21126882.3194
        30.5004         28.7504
 02  8  5 19 58 59.9990000  0  5G20G11G14G21G25
  23520655.5974   -3882226.38746  -2838258.76846                  23520663.9564
        12.0004         12.0004
  21409687.4014   -3423295.13647  -2609013.46146                  21409692.8154
        27.7504         24.7504
  21552021.2924    3009205.72048   2294812.73046                  21552027.1404
        28.2504         24.7504
  22855332.9724    2821129.94946   2146264.00546                  22855342.2224
        14.5004         14.0004
  21121235.6204   -3958055.32848  -3012497.02347                  21121241.6204
        29.5004         28.7504
 02  8  5 19 59 14.9990000  0  5G20G11G14G21G25
  23511415.2924   -3930785.01946  -2876096.63046                  23511422.8434
        12.2504         12.0004
  21405061.3394   -3447604.10947  -2627955.50846                  21405066.7064
        27.2504         25.0004
  21557388.9484    3037412.27948   2316791.84946                  21557394.5154
        28.7504         24.7504
  22860373.4484    2847622.90646   2166907.82046                  22860382.2304
        14.0004         13.7504
  21115616.4564   -3987585.68848  -3035507.68147                  21115622.5384
        30.0004         28.0004
 02  8  5 19 59 29.9990000  0  5G20G11G14G21G25
  23502173.6284   -3979351.24246  -2913940.38446                  23502182.0344
        12.5004         12.2504
  21400457.0894   -3471799.11747  -2646808.75346                  21400462.7844
        27.5004         25.2504
  21562762.6364    3065650.73148   2338795.81546                  21562768.3434
        28.5004         24.7504
  22865423.4954    2874156.43046   2187583.24446                  22865432.0544
        14.7504         13.7504
  21110017.1444   -4017011.34348  -3058436.74747                  21110023.1554
        30.2504         28.0004
 02  8  5 19 59 44.9990000  0  5G20G11G14G21G25
  23492929.7844   -4027923.05545  -2951788.51745                  23492937.5464
        11.2504         11.7504
  21395875.2694   -3495878.09348  -2665571.57546                  21395880.6474
        28.7504         25.2504
  21568142.4174    3093922.95448   2360826.09846                  21568148.2764
        28.2504         24.7504
  22870481.1514    2900732.46046   2208291.78946                  22870489.6284
        16.0004         14.2504
  21104437.7614   -4046330.09848  -3081282.51647                  21104443.6324
        30.0004         28.0004
 02  8  5 19 59 59.9990000  0  5G20G11G14G21G25
  23483687.1054   -4076494.42945  -2989636.27645                  23483694.9134
        11.0004         11.2504
  21391316.2144   -3519835.04448  -2684239.32146                  21391321.7574
        28.0004         25.5004
  21573530.1904    3122234.57748   2382887.08046                  21573535.7224
        29.2504         24.7504
  22875546.8554    2927356.72346   2229037.90346                  22875555.9524
        15.2504         14.7504
  21098879.8004   -4075536.19548  -3104040.49447                  21098885.7304
        29.5004         28.0004
 02  8  5 20  0 14.9990000  0  5G20G11G14G21G25
  23474443.5894   -4125068.52445  -3027486.17945                  23474452.0544
        10.5004         11.0004
  21386779.8704   -3543673.03248  -2702814.37346                  21386785.7764
        28.2504         25.2504
  21578924.8234    3150582.10148   2404976.03746                  21578930.1324
        29.5004         24.7504
  22880622.4174    2954025.92946   2249819.05246                  22880631.3744
        16.2504         15.0004
  21093343.0734   -4104632.64848  -3126713.04147                  21093349.0734
        29.7504         28.2504
 02  8  5 20  0 29.9990000  0  5G20G11G14G21G25
  23465199.7064   -4173644.12945  -3065337.23745                  23465208.2884
        10.7504         11.5004
  21382266.7144   -3567390.83148  -2721295.76946                  21382272.3624
        28.2504         25.2504
  21584325.7924    3178966.27148   2427093.55846                  21584331.5224
        28.2504         24.7504
  22885705.7064    2980741.09346   2270636.01346                  22885714.7334
        16.0004         14.7504
  21087827.3784   -4133618.06748  -3149299.06647                  21087833.3664
        30.0004         28.5004
 02  8  5 20  0 44.9990000  0  5G20G11G14G21G25
  23455955.5194   -4222223.32445  -3103191.09245                  23455964.4644
        11.2504         11.5004
  21377776.0424   -3590990.52648  -2739685.13246                  21377781.4334
        29.0004         25.5004
  21589733.5504    3207384.73548   2449237.79146                  21589739.2924
        28.2504         24.7504
  22890798.5034    3007500.22346   2291487.22846                  22890807.4374
        16.7504         15.2504
  21082332.2144   -4162494.32748  -3171800.02747                  21082338.2494
        29.5004         28.2504
 02  8  5 20  0 59.9990000  0  5G20G11G14G21G25
  23446711.3624   -4270804.42746  -3141046.45245                  23446719.2764
        12.5004         11.5004
  21373308.3474   -3614470.22548  -2757980.99647                  21373313.4334
        30.0004         25.7504
  21595148.1984    3235839.04248   2471409.96346                  21595154.1164
        28.2504         24.5004
  22895899.2454    3034304.80146   2312373.84946                  22895908.0154
        16.2504         14.7504
  21076858.2844   -4191259.81648  -3194214.67347                  21076864.2614
        29.0004         28.5004
 02  8  5 20  1 14.9990000  0  5G20G11G14G21G25
  23437466.6364   -4319387.94746  -3178903.69546                  23437474.9834
        13.5004         12.2504
  21368862.7764   -3637830.63048  -2776183.90247                  21368867.6754
        29.5004         25.7504
  21600569.8554    3264328.13048   2493609.22546                  21600575.7024
        29.0004         24.5004
  22901008.1444    3061154.13246   2333295.34146                  22901017.6284
        15.7504         14.7504
  21071405.0974   -4219915.16448  -3216543.49147                  21071411.1674
        29.0004         29.0004
 02  8  5 20  1 29.9990000  0  5G20G11G14G21G25
  23428220.1364   -4367975.10046  -3216763.77246                  23428227.2654
        14.2504         12.5004
  21364439.8314   -3661072.70948  -2794294.60746                  21364444.9174
        28.7504         25.5004
  21605997.5894    3292850.50248   2515834.41846                  21606003.1794
        29.0004         24.5004
  22906125.8864    3088046.93846   2354250.73046                  22906135.2064
        16.2504         14.7504
  21065973.1754   -4248461.37948  -3238787.27547                  21065979.2694
        29.7504         29.2504
 02  8  5 20  1 44.9990000  0  5G20G11G14G21G25
  23418974.8554   -4416560.59646  -3254622.54946                  23418981.7964
        14.2504         12.2504
  21360040.4644   -3684191.00848  -2812308.85646                  21360045.8434
        28.5004         25.2504
  21611432.0734    3321411.19748   2538089.49046                  21611437.8514
        28.0004         24.2504
  22911253.4564    3114988.74046   2375244.28346                  22911262.6834
        16.2504         14.5004
  21060562.9094   -4276893.06248  -3260941.81247                  21060568.8274
        30.5004         29.2504
 02  8  5 20  1 59.9990000  0  5G20G11G14G21G25
  23409728.6444   -4465148.19046  -3292482.96846                  23409736.3004
        14.5004         12.7504
  21355663.7924   -3707189.43348  -2830229.70846                  21355669.2064
        28.5004         25.2504
  21616873.7064    3350006.07247   2560371.18646                  21616879.6124
        27.7504         23.7504
  22916387.4644    3141975.33046   2396272.73846                  22916396.9604
        15.0004         15.0004
  21055173.5814   -4305213.94148  -3283010.01247                  21055179.5224
        31.0004         29.7504
 02  8  5 20  2 14.9990000  0  5G20G11G14G21G25
  23400482.0504   -4513738.94346  -3330345.83546                  23400488.4834
        14.0004         12.0004
  21351310.0974   -3730068.96548  -2848057.91446                  21351315.4404
        28.7504         25.5004
  21622321.2224    3378633.79947   2582678.48546                  21622327.0934
        27.5004         23.7504
  22921531.2374    3169005.58746   2417335.20646                  22921540.8514
        14.2504         14.5004
  21049805.0894   -4333425.10948  -3304992.72547                  21049811.0544
        31.2504         29.7504
 02  8  5 20  2 29.9990000  0  5G20G11G14G21G25
  23391235.3084   -4562330.81946  -3368209.62046                  23391242.8704
        13.5004         12.2504
  21346979.4014   -3752827.52548  -2865791.84846                  21346984.7574
        28.7504         25.5004
  21627775.2534    3407296.00447   2605012.65046                  21627781.3584
        26.5004         23.5004
  22926683.4404    3196081.37446   2438433.17346                  22926693.3704
        14.0004         14.5004
  21044458.1834   -4361524.52248  -3326888.35747                  21044464.2064
        31.5004         29.7504
 02  8  5 20  2 44.9990000  0  5G20G11G14G21G25
  23381988.0194   -4610922.19246  -3406072.97245                  23381996.0034
        12.2504         11.5004
  21342671.9484   -3775463.36848  -2883430.15746                  21342677.0464
        28.7504         25.5004
  21633236.0654    3435994.01447   2627374.72346                  21633242.3124
        25.7504         23.5004
  22931844.4484    3223204.17946   2459567.76346                  22931854.7184
        13.0004         14.2504
  21039132.5974   -4389510.44348  -3348695.54847                  21039138.5854
        31.2504         29.2504
 02  8  5 20  2 59.9990000  0  5G20G11G14G21G25
  23372739.6124   -4659520.44146  -3443941.69445                  23372747.0114
        12.2504         11.5004
  21338386.3704   -3797983.83848  -2900978.57046                  21338391.5854
        28.7504         25.2504
  21638703.1514    3464720.09747   2649758.64846                  21638708.9874
        26.5004         23.2504
  22937012.8784    3250366.56346   2480733.20146                  22937023.0424
        12.7504         14.0004
  21033827.0034   -4417390.25248  -3370420.05647                  21033833.0264
        30.2504         29.2504
 02  8  5 20  3 14.9990000  0  5G20G11G14G21G25
  23363491.5034   -4708119.48146  -3481811.04445                  23363499.4174
        12.2504         11.7504
  21334123.6754   -3820382.74347  -2918432.26346                  21334129.2654
        27.7504         25.5004
  21644175.6904    3493480.09847   2672169.01846                  21644181.6674
        26.0004         23.0004
  22942191.6124    3277574.71346   2501934.30446                  22942201.7414
        13.5004         13.5004
  21028543.0734   -4445157.56848  -3392056.91147                  21028549.0624
        30.2504         29.0004
 02  8  5 20  3 29.9990000  0  5G20G11G14G21G25
  23354242.8234   -4756722.65346  -3519683.58945                  23354250.4684
        12.7504         11.7504
  21329883.8004   -3842663.42948  -2935793.82746                  21329889.6714
        28.0004         25.2504
  21649654.1444    3522270.40947   2694603.01546                  21649660.4954
        25.5004         23.5004
  22947376.8784    3304824.93346   2523168.19546                  22947386.7614
        13.7504         13.5004
  21023279.6834   -4472815.91648  -3413608.85147                  21023285.7654
        30.0004         28.7504
 02  8  5 20  3 44.9990000  0  5G20G11G14G21G25
  23344994.8704   -4805324.93246  -3557555.44746                  23345002.1634
        14.0004         12.5004
  21325667.7454   -3864821.03848  -2953059.49247                  21325673.6514
        28.2504         25.7504
  21655139.1284    3551095.54447   2717064.13546                  21655145.3744
        24.7504         23.0004
  22952572.4804    3332122.18946   2544438.74446                  22952582.1054
        14.7504         13.7504
  21018037.9334   -4500360.32448  -3435071.99947                  21018044.0264
        29.5004         28.7504
 02  8  5 20  3 59.9990000  0  5G20G11G14G21G25
  23335746.5114   -4853929.72746  -3595429.25546                  23335751.9134
        14.7504         12.5004
  21321474.1364   -3886858.76248  -2970231.74047                  21321479.9604
        28.5004         25.7504
  21660630.6444    3579951.70847   2739549.43746                  21660636.6084
        24.5004         22.5004
  22957774.3004    3359462.96146   2565743.18446                  22957783.4214
        14.5004         13.7504
  21012817.7614   -4527794.09248  -3456448.94047                  21012823.8784
        30.2504         29.0004
 02  8  5 20  4 14.9990000  0  5G20G11G14G21G25
  23326497.3864   -4902534.75046  -3633303.24746                  23326504.0894
        15.5004         13.0004
  21317304.0584   -3908774.24448  -2987308.73247                  21317309.7414
        29.0004         25.7504
  21666128.4334    3608840.98047   2762060.52346                  21666134.5624
        25.0004         22.5004
  22962986.0814    3386849.41346   2587083.22846                  22962994.8744
        14.7504         14.0004
  21007618.9724   -4555114.77748  -3477737.77347                  21007624.8904
        31.2504         29.2504
 02  8  5 20  4 29.9990000  0  5G20G11G14G21G25
  23317247.7374   -4951137.97046  -3671175.84546                  23317254.7024
        14.5004         12.7504
  21313156.4954   -3930565.54047  -3004288.96547                  21313162.1904
        27.7504         25.7504
  21671632.4874    3637765.05147   2784598.74346                  21671638.3354
        25.0004         22.2504
  22968207.1204    3414283.41046   2608460.30846                  22968216.6984
        14.7504         14.0004
  21002441.7764   -4582320.44548  -3498936.97847                  21002447.7534
        31.5004         29.5004
 02  8  5 20  4 44.9990000  0  5G20G11G14G21G25
  23307997.2304   -4999745.66446  -3709051.93146                  23308005.1324
        13.2504         13.0004
  21309032.6364   -3952238.88448  -3021177.27946                  21309038.3664
        28.5004         25.5004
  21677142.0974    3666717.39347   2807158.98046                  21677148.2374
        24.7504         22.2504
  22973435.5814    3441758.50746   2629869.39946                  22973444.6904
        15.7504         14.2504
  20997285.4174   -4609417.23048  -3520051.34447                  20997291.3944
        32.0004         29.7504
 02  8  5 20  4 59.9990000  0  5G20G11G14G21G25
  23298747.5034   -5048355.46946  -3746929.62946                  23298756.5424
        13.0004         12.2504
  21304931.1514   -3973791.77748  -3037971.74647                  21304936.6594
        28.0004         25.7504
  21682657.3394    3695699.97447   2829742.78846                  21682663.5384
        24.5004         22.5004
  22978671.5894    3469276.87446   2651312.23546                  22978680.8044
        14.7504         13.2504
  20992150.4254   -4636402.70248  -3541078.96647                  20992156.4134
        32.2504         30.0004
 02  8  5 20  5 14.9990000  0  5G20G11G14G21G25
  23289497.3554   -5096963.08346  -3784805.67846                  23289505.5624
        12.7504         12.5004
  21300853.6594   -3995220.06348  -3054669.10846                  21300859.0854
        28.2504         25.5004
  21688178.9644    3724716.65447   2852353.17646                  21688185.0584
        24.5004         22.2504
  22983917.5814    3496842.70246   2672792.03646                  22983927.3704
        15.0004         13.7504
  20987036.9644   -4663272.60448  -3562016.53247                  20987042.9644
        31.2504         29.7504
 02  8  5 20  5 29.9990000  0  5G20G11G14G21G25
  23280246.8784   -5145572.87246  -3822683.42046                  23280255.4134
        12.7504         12.2504
  21296798.9014   -4016527.93248  -3071272.63147                  21296804.2804
        28.5004         25.7504
  21693706.1444    3753762.89547   2874986.58546                  21693712.1674
        23.7504         22.0004
  22989172.1364    3524451.71246   2694305.49046                  22989181.7724
        15.7504         13.7504
  20981944.7454   -4690031.25848  -3582867.41447                  20981950.7334
        30.7504         29.5004
 02  8  5 20  5 44.9990000  0  5G20G11G14G21G25
  23270996.1364   -5194186.46746  -3860564.12746                  23271003.3004
        12.5004         12.5004
  21292767.1054   -4037717.05748  -3087783.62947                  21292771.9684
        29.5004         26.0004
  21699238.7764    3782836.75247   2897641.51546                  21699244.7764
        23.7504         21.7504
  22994433.7374    3552101.98646   2715851.07446                  22994442.6944
        15.0004         13.5004
  20976873.6514   -4716680.34548  -3603632.91747                  20976879.6874
        30.5004         29.5004
 02  8  5 20  5 59.9990000  0  5G20G11G14G21G25
  23261746.1834   -5242799.99146  -3898444.72946                  23261753.5224
        13.5004         13.0004
  21288757.9334   -4058783.59648  -3104199.11247                  21288763.1594
        28.2504         26.0004
  21704777.1594    3811941.70547   2920320.68146                  21704783.0894
        23.7504         21.7504
  22999703.8004    3579797.25046   2737431.75346                  22999712.8974
        14.5004         13.2504
  20971824.1754   -4743215.85048  -3624309.91047                  20971830.2454
        30.5004         29.5004
 02  8  5 20  6 14.9990000  0  5G20G11G14G21G25
  23252495.4874   -5291413.92646  -3936325.67646                  23252502.5344
        14.0004         13.0004
  21284771.9404   -4079727.90847  -3120519.35546                  21284777.3904
        27.5004         25.5004
  21710322.1054    3841076.94347   2943023.44246                  21710327.6594
        24.7504         22.0004
  23004981.6444    3607537.11646   2759047.16746                  23004991.5974
        13.5004         13.0004
  20966796.0344   -4769638.31048  -3644898.82347                  20966802.1514
        30.5004         29.5004
 02  8  5 20  6 29.9990000  0  5G20G11G14G21G25
  23243244.8234   -5340028.24246  -3974206.89746                  23243251.8704
        15.2504         14.0004
  21280809.8474   -4100549.92748  -3136744.30446                  21280815.4134
        28.2504         25.2504
  21715871.7614    3870242.10647   2965749.52446                  21715877.2454
        24.2504         21.5004
  23010269.2454    3635321.39146   2780697.18346                  23010279.2224
        13.0004         12.7504
  20961789.8704   -4795947.72748  -3665399.64447                  20961795.8944
        31.2504         29.5004
 02  8  5 20  6 44.9990000  0  5G20G11G14G21G25
  23233993.5424   -5388642.57146  -4012088.15646                  23234000.0584
        14.7504         13.5004
  21276870.9804   -4121249.21347  -3152873.61846                  21276876.2184
        27.7504         25.2504
  21721427.6054    3899437.37847   2988499.05846                  21721433.1714
        24.2504         22.0004
  23015563.7064    3663150.26745   2802381.96646                  23015573.8944
        11.7504         12.5004
  20956804.8154   -4822143.54948  -3685811.95647                  20956810.7454
        31.5004         29.5004
 02  8  5 20  6 59.9990000  0  5G20G11G14G21G25
  23224742.2064   -5437256.32646  -4049968.95946                  23224748.2764
        15.0004         13.7504
  21272955.7374   -4141825.32948  -3168906.94546                  21272960.6124
        28.5004         25.5004
  21726988.5344    3928662.91847   3011272.19346                  21726994.6284
        23.5004         21.7504
  23020868.2454    3691024.14445   2824101.83346                  23020878.6324
        11.7504         13.0004
  20951841.5424   -4848225.36448  -3706135.43947                  20951847.5304
        31.5004         29.5004
 02  8  5 20  7 14.9990000  0  5G20G11G14G21G25
  23215490.7064   -5485871.57546  -4087850.94446                  23215498.1164
        14.5004         14.0004
  21269063.0344   -4162280.26648  -3184845.85146                  21269067.8044
        28.5004         25.2504
  21732555.3864    3957916.43947   3034067.13446                  21732561.7144
        23.5004         21.7504
  23026180.6754    3718940.92345   2845855.09746                  23026190.9684
        11.5004         12.5004
  20946899.5034   -4874195.05748  -3726371.54047                  20946905.4334
        31.7504         29.5004
 02  8  5 20  7 29.9990000  0  5G20G11G14G21G25
  23206238.6204   -5534488.58246  -4125734.26946                  23206246.3234
        13.5004         13.5004
  21265193.4874   -4182614.22148  -3200690.48546                  21265198.4094
        28.0004         25.2504
  21738127.2064    3987197.17647   3056883.25946                  21738133.8514
        23.2504         21.5004
  23031501.4644    3746900.15645   2867641.44046                  23031512.3554
        11.7504         12.2504
  20941979.3234   -4900052.71548  -3746520.34447                  20941985.3234
        32.0004         29.5004
 02  8  5 20  7 44.9990000  0  5G20G11G14G21G25
  23196987.3394   -5583106.36946  -4163618.24646                  23196995.0894
        13.7504         13.5004
  21261347.0264   -4202826.35147  -3216440.19946                  21261352.4524
        27.2504         25.2504
  21743704.1594    4016505.79847   3079721.12146                  21743710.4174
        22.7504         21.0004
  23036830.5114    3774902.78645   2889461.62346                  23036840.9094
        11.7504         12.2504
  20937080.1364   -4925797.56448  -3766581.24747                  20937086.0654
        32.0004         29.5004
 02  8  5 20  7 59.9990000  0  5G20G11G14G21G25
  23187735.8864   -5631723.82046  -4201501.94446                  23187743.0154
        14.2504         13.5004
  21257524.4804   -4222915.42647  -3232094.01546                  21257529.9294
        27.7504         25.2504
  21749287.1284    4045843.08447   3102581.31846                  21749293.1634
        23.5004         20.7504
  23042168.6204    3802949.57646   2911316.21346                  23042179.0424
        13.2504         12.2504
  20932202.9484   -4951428.57748  -3786553.45447                  20932208.8084
        32.5004         29.7504
 02  8  5 20  8 14.9990000  0  5G20G11G14G21G25
  23178484.1054   -5680342.10746  -4239386.28946                  23178490.9254
        14.0004         13.2504
  21253724.9804   -4242882.66848  -3247652.90846                  21253730.5344
        28.2504         25.5004
  21754875.1364    4075207.53947   3125462.68746                  21754881.0544
        23.7504         20.7504
  23047513.7764    3831039.25146   2933204.19046                  23047523.7414
        13.5004         12.5004
  20927346.7454   -4976946.80948  -3806437.76847                  20927352.7454
        32.0004         29.7504
 02  8  5 20  8 29.9990000  0  5G20G11G14G21G25
  23169232.4334   -5728960.77446  -4277270.91646                  23169239.3154
        14.5004         13.2504
  21249948.6984   -4262727.57147  -3263116.46346                  21249954.2184
        27.7504         25.0004
  21760468.1904    4104599.48647   3148365.47846                  21760473.9804
        23.7504         21.0004
  23052867.8234    3859172.34246   2955126.02946                  23052876.4054
        14.5004         12.5004
  20922512.4254   -5002351.74648  -3826233.80647                  20922518.4254
        31.7504         30.0004
 02  8  5 20  8 44.9990000  0  5G20G11G14G21G25
  23159980.2144   -5777578.59446  -4315154.87446                  23159987.2724
        14.2504         13.7504
  21246195.5584   -4282448.95947  -3278483.77046                  21246200.9954
        27.5004         25.0004
  21766066.7454    4134019.53747   3171290.17446                  21766072.4644
        23.7504         21.5004
  23058229.1364    3887349.91346   2977082.51346                  23058238.3274
        14.2504         12.5004
  20917699.8394   -5027642.32148  -3845940.72547                  20917705.8514
        31.7504         29.7504
 02  8  5 20  8 59.9990000  0  5G20G11G14G21G25
  23150730.0974   -5826193.15546  -4353036.29946                  23150736.5894
        15.7504         13.7504
  21242466.6514   -4302044.31847  -3293752.87446                  21242471.9604
        27.5004         25.2504
  21771670.6834    4163469.89747   3194238.49546                  21771676.8124
        23.2504         21.0004
  23063600.6904    3915574.18146   2999075.40446                  23063609.6714
        15.0004         13.2504
  20912909.4174   -5052815.92448  -3865556.49547                  20912915.3584
        31.7504         29.7504
 02  8  5 20  9 14.9990000  0  5G20G11G14G21G25
  23141479.1834   -5874806.18446  -4390916.54646                  23141485.6284
        15.5004         13.2504
  21238761.3394   -4321515.42847  -3308925.16846                  21238766.6834
        27.0004         24.7504
  21777280.6674    4192948.70647   3217208.97046                  21777287.0774
        23.5004         21.0004
  23068980.0814    3943843.20646   3021103.15546                  23068989.0264
        14.2504         13.0004
  20908141.0034   -5077874.28448  -3885082.47047                  20908146.9214
        31.7504         29.7504
 02  8  5 20  9 29.9990000  0  5G20G11G14G21G25
  23132228.6834   -5923418.08946  -4428795.91246                  23132235.0464
        14.7504         12.2504
  21235079.4014   -4340862.71647  -3324000.97246                  21235085.1444
        26.2504         24.7504
  21782896.1444    4222455.08247   3240200.91246                  21782902.2964
        24.5004         20.7504
  23074367.0734    3972156.47246   3043165.38046                  23074377.3554
        13.2504         12.7504
  20903394.0034   -5102817.96748  -3904519.08847                  20903400.0154
        31.2504         29.2504
 02  8  5 20  9 44.9990000  0  5G20G11G14G21G25
  23122977.6124   -5972030.08346  -4466675.34946                  23122984.1634
        14.5004         12.7504
  21231421.3784   -4360087.40847  -3338981.24746                  21231427.1904
        27.2504         25.2504
  21788515.7454    4251987.32647   3263213.02746                  21788521.3124
        24.5004         20.7504
  23079763.3864    4000512.60646   3065260.97946                  23079773.4914
        13.2504         12.7504
  20898668.8084   -5127648.14948  -3923867.26347                  20898674.7494
        31.0004         29.2504
 02  8  5 20  9 59.9990000  0  5G20G11G14G21G25
  23113726.9334   -6020641.16246  -4504554.08146                  23113734.2724
        14.5004         12.7504
  21227786.8004   -4379188.49247  -3353865.21246                  21227792.3554
        27.7504         25.0004
  21794140.3154    4281546.24047   3286245.93446                  21794146.1054
        24.0004         20.7504
  23085167.7694    4028912.47046   3087390.68546                  23085178.4834
        14.0004         13.2504
  20893965.8474   -5152363.77648  -3943126.18047                  20893971.7884
        31.7504         29.2504
 02  8  5 20 10 14.9990000  0  5G20G11G14G21G25
  23104476.8624   -6069249.96946  -4542431.05146                  23104484.6124
        14.2504         13.0004
  21224175.5894   -4398164.55948  -3368651.75346                  21224181.2374
        28.0004         25.2504
  21799770.1284    4311132.83747   3309300.41646                  21799776.1054
        23.5004         20.5004
  23090581.0114    4057357.32546   3109555.43746                  23090591.9254
        13.5004         13.0004
  20889284.6834   -5176963.57848  -3962294.84047                  20889290.6834
        32.0004         29.0004
 02  8  5 20 10 29.9990000  0  5G20G11G14G21G25
  23095227.9484   -6117856.74646  -4580306.41046                  23095235.6164
        14.5004         12.5004
  21220588.2764   -4417015.86747  -3383341.07846                  21220593.8434
        27.5004         25.5004
  21805405.6834    4340746.55547   3332376.01746                  21805411.7884
        23.7504         20.0004
  23096001.8474    4085846.65646   3131754.84346                  23096011.6944
        13.0004         13.0004
  20884625.4334   -5201447.70048  -3981373.35847                  20884631.5034
        31.7504         29.5004
 02  8  5 20 10 44.9990000  0  5G20G11G14G21G25
  23085978.4334   -6166461.83246  -4618180.44546                  23085985.5034
        15.7504         13.5004
  21217024.5194   -4435742.91447  -3397933.58446                  21217030.2614
        27.2504         25.0004
  21811045.7534    4370386.68447   3355472.18746                  21811051.7764
        23.0004         20.2504
  23101431.4334    4114380.23346   3153988.73046                  23101441.9014
        12.5004         12.0004
  20879988.2924   -5225816.51548  -4000362.03647                  20879994.2924
        31.7504         29.7504
 02  8  5 20 10 59.9990000  0  5G20G11G14G21G25
  23076729.7374   -6215067.62046  -4656055.04646                  23076736.6444
        16.7504         13.2504
  21213484.0504   -4454347.99847  -3412431.04846                  21213489.6634
        27.0004         25.0004
  21816690.7534    4400050.47747   3378586.81146                  21816696.7764
        23.5004         20.5004
  23106869.5034    4142955.33246   3176254.99746                  23106880.2884
        12.5004         12.5004
  20875372.5814   -5250072.41348  -4019262.72647                  20875378.5814
        31.7504         29.5004
 02  8  5 20 11 14.9990000  0  5G20G11G14G21G25
  23067480.7844   -6263671.26546  -4693927.98046                  23067486.6794
        16.7504         13.5004
  21209967.6754   -4472828.16747  -3426831.17846                  21209973.0774
        27.7504         25.2504
  21822340.8474    4429740.52147   3401721.88846                  21822347.3044
        23.7504         20.2504
  23112315.4954    4171574.60446   3198555.65746                  23112326.0584
        12.5004         12.5004
  20870778.7614   -5274212.63548  -4038073.27047                  20870784.6904
        31.2504         29.2504
 02  8  5 20 11 29.9990000  0  5G20G11G14G21G25
  23058231.8154   -6312271.47746  -4731798.22946                  23058237.8744
        15.7504         13.5004
  21206474.8154   -4491182.22548  -3441133.03346                  21206480.2884
        28.0004         25.5004
  21827996.2844    4459457.71847   3424878.11246                  21828002.3434
        25.0004         20.2504
  23117770.0504    4200239.25846   3220891.67745                  23117779.3824
        12.7504         11.5004
  20866206.8474   -5298236.00448  -4056792.75847                  20866212.8944
        30.0004         29.2504
 02  8  5 20 11 44.9990000  0  5G20G11G14G21G25
  23048983.3474   -6360871.73646  -4769668.49646                  23048989.8974
        15.2504         13.7504
  21203005.5114   -4509413.81448  -3455339.46046                  21203010.7964
        28.2504         25.5004
  21833655.2764    4489198.26447   3448052.53746                  21833660.9484
        24.5004         20.2504
  23123232.7534    4228945.72246   3243260.30145                  23123243.0584
        12.7504         11.7504
  20861657.2224   -5322145.97048  -4075423.88047                  20861663.2924
        30.7504         29.5004
 02  8  5 20 11 59.9990000  0  5G20G11G14G21G25
  23039734.9724   -6409467.81246  -4807535.52746                  23039742.5344
        14.0004         13.5004
  21199560.3784   -4527518.82948  -3469447.26447                  21199565.9094
        28.2504         25.7504
  21839320.0034    4518966.11347   3471248.23546                  21839325.7694
        24.0004         20.2504
  23128704.9014    4257698.20446   3265664.76546                  23128715.0194
        13.2504         12.0004
  20857129.6514   -5345938.12048  -4093963.20247                  20857135.5584
        31.2504         29.5004
 02  8  5 20 12 14.9990000  0  5G20G11G14G21G25
  23030487.9644   -6458063.97846  -4845402.64546                  23030496.0194
        14.0004         13.5004
  21196138.3154   -4545501.36848  -3483459.62946                  21196143.9054
        28.0004         25.5004
  21844988.9484    4548756.65647   3494461.62546                  21844994.9014
        24.5004         20.0004
  23134183.1514    4286492.12646   3288101.52246                  23134193.5264
        12.5004         12.5004
  20852623.5974   -5369616.84448  -4112414.14547                  20852629.3974
        31.0004         29.5004
 02  8  5 20 12 29.9990000  0  5G20G11G14G21G25
  23021239.3154   -6506661.28246  -4883270.62846                  23021247.1124
        13.2504         14.0004
  21192739.5894   -4563362.54648  -3497377.43046                  21192745.0034
        28.7504         25.5004
  21850662.2764    4578568.45547   3517691.56446                  21850668.1594
        24.7504         20.2504
  23139670.9874    4315326.17046   3310569.55046                  23139679.4764
        12.7504         12.0004
  20848139.3624   -5393183.19348  -4130777.52447                  20848145.3044
        31.5004         29.2504
 02  8  5 20 12 44.9990000  0  5G20G11G14G21G25
  23011992.8624   -6555258.01646  -4921138.19746                  23012000.6364
        14.2504         14.0004
  21189364.0814   -4581100.57848  -3511199.27347                  21189369.3554
        28.7504         25.7504
  21856339.3944    4608402.96047   3540939.20846                  21856344.9954
        24.2504         20.5004
  23145165.5114    4344201.96746   3333070.08446                  23145174.5264
        12.7504         12.0004
  20843676.4014   -5416635.47848  -4149052.01447                  20843682.3904
        31.2504         29.2504
 02  8  5 20 12 59.9990000  0  5G20G11G14G21G25
  23002746.2694   -6603848.52546  -4959000.87946                  23002754.4994
        14.7504         14.7504
  21186013.5114   -4598709.82148  -3524920.75447                  21186018.5034
        29.2504         26.0004
  21862021.7064    4638265.47447   3564208.67946                  21862027.9644
        23.7504         20.2504
  23150669.6754    4373125.02946   3355607.48145                  23150679.9094
        13.0004         11.7504
  20839236.4254   -5439968.03148  -4167233.21747                  20839242.4484
        30.7504         29.0004
 02  8  5 20 13 14.9990000  0  5G20G11G14G21G25
  22993500.2224   -6652437.59546  -4996862.44446                  22993508.0894
        15.2504         15.0004
  21182686.1984   -4616195.18148  -3538545.70647                  21182690.9214
        30.0004         26.2504
  21867709.0814    4668150.74847   3587495.87846                  21867715.0464
        23.7504         20.2504
  23156181.7064    4402090.33346   3378177.77246                  23156192.0694
        13.2504         12.0004
  20834817.9014   -5463185.88148  -4185325.03747                  20834823.9724
        30.2504         29.0004
 02  8  5 20 13 29.9990000  0  5G20G11G14G21G25
  22984254.5654   -6701023.79246  -5034721.78846                  22984261.9404
        15.2504         15.0004
  21179382.5264   -4633555.29148  -3552073.06347                  21179387.3904
        29.7504         26.2504
  21873400.4804    4698060.04247   3610801.80146                  21873406.5854
        24.2504         20.2504
  23161702.2694    4431099.31446   3400782.09846                  23161712.2334
        13.7504         12.2504
  20830421.8154   -5486287.51048  -4203326.29247                  20830427.7804
        30.2504         28.5004
 02  8  5 20 13 44.9990000  0  5G20G11G14G21G25
  22975009.1284   -6749606.69146  -5072578.55646                  22975016.2924
        15.2504         14.0004
  21176103.0894   -4650789.76948  -3565502.52347                  21176108.1754
        29.7504         26.2504
  21879096.1514    4727993.29347   3634126.39746                  21879102.8314
        23.0004         20.7504
  23167231.1054    4460152.33146   3423420.73846                  23167240.6364
        13.7504         12.2504
  20826047.8084   -5509272.51748  -4221236.67047                  20826053.8084
        30.0004         28.5004
 02  8  5 20 13 59.9990000  0  5G20G11G14G21G25
  22965764.6364   -6798187.21846  -5110433.46046                  22965771.3154
        15.0004         13.7504
  21172847.3004   -4667899.40748  -3578834.70947                  21172852.3864
        30.2504         26.5004
  21884796.7064    4757949.43447   3657468.81146                  21884803.8124
        22.7504         20.7504
  23172768.6204    4489247.99246   3446092.61946                  23172778.4564
        14.2504         12.7504
  20821696.1284   -5532141.72148  -4239056.81447                  20821702.0934
        30.5004         29.0004
 02  8  5 20 14 14.9990000  0  5G20G11G14G21G25
  22956520.0344   -6846767.41146  -5148288.11646                  22956526.9524
        15.5004         14.5004
  21169614.4644   -4684886.39348  -3592071.32747                  21169619.4564
        29.7504         26.2504
  21890501.1754    4787925.99847   3680827.14746                  21890508.0934
        23.0004         20.7504
  23178312.3784    4518384.23046   3468796.09546                  23178322.3904
        13.7504         13.0004
  20817366.0654   -5554897.22148  -4256788.36247                  20817372.0894
        31.0004         29.5004
 02  8  5 20 14 29.9990000  0  5G20G11G14G21G25
  22947276.5344   -6895343.97246  -5186139.96046                  22947283.8514
        16.0004         15.0004
  21166406.0264   -4701747.45048  -3605209.81047                  21166411.2414
        29.7504         26.2504
  21896210.6674    4817926.04747   3704203.79046                  21896217.2184
        24.2504         20.7504
  23183865.2064    4547564.41546   3491533.82146                  23183875.7334
        13.0004         12.5004
  20813057.9724   -5577535.90148  -4274428.88047                  20813063.9134
        31.5004         29.7504
 02  8  5 20 14 44.9990000  0  5G20G11G14G21G25
  22938032.1204   -6943920.80846  -5223992.01546                  22938039.1794
        15.5004         14.7504
  21163220.6364   -4718486.67948  -3618253.36247                  21163225.7924
        29.7504         26.2504
  21901923.1674    4847945.15447   3727595.27546                  21901929.2144
        24.2504         20.7504
  23189425.7224    4576784.27046   3514302.48646                  23189435.6874
        12.2504         12.0004
  20808771.6904   -5600061.85048  -4291981.55847                  20808777.6674
        32.0004         30.0004
 02  8  5 20 14 59.9990000  0  5G20G11G14G21G25
  22928788.7924   -6992493.71646  -5261840.98446                  22928795.3314
        15.2504         14.2504
  21160059.1834   -4735099.70148  -3631198.58047                  21160064.5154
        29.0004         26.2504
  21907639.6834    4877987.30447   3751004.72346                  21907645.6594
        23.7504         20.7504
  23194993.7844    4606047.75646   3537105.14245                  23195004.9444
        12.2504         11.7504
  20804507.1054   -5622470.58448  -4309442.89947                  20804513.0584
        31.2504         29.7504
